GFSNE_850_thetae_000.txt.gz
Theta_e
330 329 329 329 328 327 325 324 323 322 322 322 322 322 322 321 321 320 319 319 318 318 318 318 318 318 314 314 309 306 302 298 293 292 291 295 296 297
329 329 328 328 328 328 326 324 323 323 322 322 322 322 322 322 322 320 320 319 319 319 319 319 318 316 314 313 307 304 299 294 292 291 291 295 295 295
326 327 327 327 327 326 326 324 323 322 323 322 322 323 323 323 322 321 320 320 320 319 319 319 318 315 314 311 306 301 295 292 291 290 290 293 294 294
319 323 323 324 325 326 326 326 325 323 322 323 323 322 322 322 322 321 321 320 319 319 320 319 317 316 314 308 304 297 293 292 291 289 289 290 292 292
318 318 318 320 323 324 324 325 325 323 323 322 321 323 323 322 322 321 321 319 317 316 319 319 317 314 312 305 298 293 292 291 290 288 287 287 291 292
315 315 315 315 317 321 324 325 324 323 323 322 322 322 322 322 321 321 320 319 317 315 315 318 316 312 306 301 296 292 291 290 289 288 287 290 291 291
313 313 314 314 314 315 320 323 323 324 322 323 322 321 322 321 320 320 320 318 318 314 312 315 312 307 302 297 293 291 290 289 288 287 289 290 291 290
312 312 313 313 313 313 316 317 321 321 323 321 322 321 320 320 318 319 319 313 312 312 312 312 308 302 296 294 291 290 289 288 287 287 288 290 289 289
308 309 310 313 314 314 314 314 317 319 321 323 321 321 321 320 318 318 318 316 316 314 313 307 300 295 293 292 290 290 289 288 287 286 285 288 288 288
305 307 309 310 312 314 314 314 316 317 318 319 319 320 319 319 320 318 318 315 313 307 303 299 296 295 292 290 289 289 288 288 287 286 285 285 286 288
304 305 306 306 308 309 311 313 312 316 318 316 319 316 320 319 320 317 317 313 309 305 298 294 292 292 290 289 289 288 287 287 286 286 286 286 287 287
294 295 300 304 307 307 307 310 311 312 315 318 318 317 317 316 314 317 318 313 305 298 299 296 292 291 288 288 288 287 287 286 286 286 286 286 287 287
292 293 296 301 304 307 307 309 311 312 313 316 317 316 315 312 313 307 307 309 307 303 296 294 293 288 288 288 287 286 286 286 286 285 284 284 285 286
290 292 297 301 304 305 307 309 311 312 313 313 314 315 308 307 305 302 303 301 300 296 293 292 289 288 287 287 286 286 285 285 284 284 284 285 286 286
290 292 297 300 304 305 307 308 310 310 312 312 311 304 304 302 300 300 299 296 292 294 291 288 288 287 287 286 286 286 285 286 285 286 285 285 285 285
290 293 299 300 301 301 302 304 307 308 309 308 304 302 302 299 301 296 294 295 294 294 290 288 287 286 286 285 285 286 285 285 285 284 284 286 285 285
293 295 297 298 298 300 300 301 302 303 301 300 300 299 299 297 298 295 295 294 296 290 288 287 286 286 285 285 285 286 286 285 285 286 285 286 287 287
293 295 294 295 296 297 297 298 299 298 298 297 297 296 297 294 294 296 295 294 289 288 287 286 286 285 285 285 285 286 285 286 286 286 286 286 288 289
291 291 293 293 295 295 295 296 296 296 296 296 294 294 294 293 292 295 293 289 287 286 286 285 285 284 283 284 284 285 285 287 287 286 287 287 288 289
290 290 291 292 294 294 294 294 295 295 295 294 293 293 294 294 292 293 292 288 286 286 285 285 284 283 282 283 284 289 285 286 285 286 288 287 288 290
288 290 290 291 293 294 294 293 293 293 293 293 292 293 295 293 293 291 287 286 285 285 285 284 283 283 283 284 284 287 289 288 287 287 287 286 286 287
287 289 289 291 292 293 293 292 291 291 291 291 292 294 294 294 292 287 286 286 286 285 284 283 283 284 284 285 287 288 289 290 289 289 288 287 287 285
286 288 288 290 291 292 292 291 290 290 289 290 291 292 293 294 287 286 285 286 285 284 283 283 285 285 286 286 287 288 288 289 289 290 291 289 289 289

GFSNE_850_thetae_003.txt.gz
Theta_e
324 325 326 326 326 327 328 327 326 324 323 322 321 321 321 321 320 321 321 321 321 320 318 318 317 318 318 318 318 317 315 313 307 303 297 293 292 295
315 317 319 320 322 324 325 325 326 326 324 323 323 323 322 321 321 322 322 321 320 320 319 319 318 318 318 318 318 317 315 311 304 299 293 292 293 297
314 315 316 316 318 320 320 322 325 325 324 324 323 322 322 322 321 321 321 321 321 320 320 319 318 318 317 317 317 316 314 307 302 294 292 292 293 296
315 316 317 317 317 317 318 319 322 323 323 323 323 322 322 322 321 321 321 321 322 321 319 319 318 318 315 313 315 314 311 304 296 292 291 291 290 293
310 312 313 314 314 314 315 315 315 316 321 322 322 323 322 321 321 321 321 321 321 322 321 318 317 316 316 312 310 311 306 300 294 291 291 290 290 289
310 310 310 311 312 312 314 315 316 316 317 319 321 322 322 322 321 320 321 321 321 321 320 315 317 318 314 310 307 305 301 295 292 291 290 290 289 289
308 307 306 306 308 309 311 314 316 316 316 318 318 319 322 320 317 320 321 320 320 321 319 315 311 312 313 306 305 307 295 292 291 290 290 289 289 291
303 298 299 303 306 309 310 312 314 315 316 316 316 317 318 318 318 319 317 314 313 317 316 315 309 311 306 302 305 294 293 292 291 290 289 288 289 291
297 296 298 302 299 303 306 308 309 311 313 314 315 315 317 317 319 318 315 316 311 315 312 310 309 309 303 302 297 293 291 290 290 289 288 288 288 290
292 293 292 292 295 298 303 305 306 307 309 312 313 312 315 318 317 319 318 312 313 314 308 305 307 303 302 299 299 292 290 289 289 289 289 287 288 289
295 297 292 291 292 295 300 302 303 304 308 309 311 312 311 313 317 317 315 313 308 308 305 304 302 301 300 298 291 289 289 289 289 290 289 287 288 288
296 294 292 290 291 296 299 300 301 303 305 307 310 311 312 312 314 316 315 313 305 303 303 301 301 299 296 295 290 288 288 288 288 288 288 289 289 288
295 294 292 290 291 298 299 301 302 302 303 305 308 310 311 311 312 312 312 311 307 306 306 301 299 301 292 288 288 288 287 287 286 286 286 286 287 286
294 293 291 290 293 297 298 300 300 301 303 305 307 309 309 308 305 306 305 304 302 304 304 302 302 295 291 288 288 287 286 286 286 285 285 285 285 285
291 291 291 293 295 296 295 296 297 299 300 301 302 303 302 301 301 300 299 298 298 299 297 298 296 289 288 288 287 286 285 285 285 285 285 286 286 286
290 290 293 294 294 295 293 294 295 296 297 298 299 299 299 298 297 297 298 297 297 294 295 293 287 287 287 286 286 286 285 286 286 286 286 287 286 287
290 291 291 291 291 293 291 293 294 294 295 296 296 296 297 296 295 295 295 296 296 294 293 286 286 286 286 286 286 286 286 287 287 286 287 287 287 288
289 289 289 289 289 291 292 291 293 293 293 294 294 294 295 294 293 294 295 294 294 292 286 286 286 286 285 285 286 287 287 287 286 286 287 287 289 290
286 287 287 287 288 290 290 290 291 292 292 292 292 292 292 292 292 293 293 292 290 286 286 286 285 285 284 285 286 288 287 287 287 288 288 288 289 290
285 285 285 286 288 288 289 290 291 291 291 291 291 290 290 290 291 291 291 292 287 286 285 285 284 284 284 284 284 286 287 287 288 289 289 288 289 290
284 284 285 286 287 288 288 289 290 290 289 289 289 288 288 289 290 292 292 287 285 285 285 283 283 283 284 285 287 289 289 288 288 289 290 288 288 288
283 283 284 285 286 287 287 288 289 289 288 288 287 287 288 290 291 292 287 285 285 284 284 283 283 284 285 287 288 289 290 290 288 288 289 288 286 285
282 283 284 284 285 287 287 288 289 288 288 287 287 288 289 291 291 286 285 285 284 283 283 283 284 285 287 288 288 289 288 289 290 291 290 290 289 289

GFSNE_850_thetae_006.txt.gz
Theta_e
311 312 313 314 315 315 316 319 321 323 323 324 324 324 324 323 320 322 322 320 318 320 321 321 320 318 317 318 318 318 320 320 318 316 314 314 310 305
309 313 314 315 316 317 317 318 319 321 322 321 322 322 323 323 322 323 322 322 320 319 320 321 320 320 318 318 318 317 318 318 317 315 314 313 308 302
311 309 309 310 312 313 314 314 314 316 318 317 319 319 320 321 322 322 322 322 321 321 320 320 321 320 319 318 318 317 318 318 316 315 313 312 305 296
305 306 309 310 310 310 310 311 312 313 314 316 316 318 318 318 321 321 320 320 321 321 321 320 320 321 320 319 319 318 317 318 315 312 311 306 299 294
305 308 307 306 306 305 305 308 309 310 311 315 316 316 317 317 317 318 320 321 321 320 318 320 320 320 320 320 319 318 318 317 313 310 307 302 294 295
303 303 302 300 298 298 304 305 307 310 311 313 314 315 315 316 317 318 319 318 318 320 320 321 319 318 320 318 317 316 316 314 310 308 305 300 293 292
299 297 297 296 295 301 296 296 300 305 305 308 310 312 315 314 315 315 316 317 316 316 315 316 318 318 317 315 315 314 313 312 308 306 298 293 291 290
296 295 294 293 294 293 291 293 295 302 304 305 306 308 310 311 312 314 314 316 314 315 313 314 315 313 312 312 313 313 310 306 306 298 294 292 292 292
292 292 291 292 298 294 291 292 293 297 299 301 302 304 306 308 311 313 313 313 314 314 314 312 313 309 309 309 309 306 305 304 303 294 292 292 292 292
289 289 289 296 295 293 291 292 293 295 298 299 301 302 303 305 306 307 309 310 312 314 314 310 310 308 307 306 304 302 302 301 299 294 292 292 291 291
289 290 293 294 294 294 293 293 294 297 298 300 300 301 302 304 306 305 306 308 309 311 311 311 307 304 302 300 300 300 300 300 293 292 292 291 291 290
291 291 292 293 293 292 292 293 296 297 297 298 299 301 302 303 305 306 307 306 308 307 310 306 301 299 296 298 298 298 295 292 292 292 292 292 291 290
290 290 290 290 291 291 293 295 295 294 295 295 297 299 300 302 305 305 306 305 306 307 308 305 300 299 300 297 296 295 291 290 291 291 291 291 290 290
290 289 289 289 290 292 293 293 293 292 294 293 294 296 298 300 301 301 301 302 302 303 303 300 300 299 300 291 292 291 288 287 287 288 288 288 288 289
288 289 288 289 291 290 290 291 291 292 291 292 292 293 295 296 296 296 297 297 297 298 299 297 299 298 299 294 288 287 287 287 286 286 286 285 285 285
288 287 287 288 287 288 288 289 290 290 290 291 291 292 293 294 294 293 294 294 295 292 293 296 295 293 288 287 287 287 286 286 286 285 285 284 285 286
286 286 285 285 285 286 288 288 288 289 289 289 291 291 291 292 292 292 292 293 294 292 292 293 288 286 286 287 286 285 285 285 286 286 286 285 285 286
284 284 284 284 285 285 286 287 287 288 289 289 290 290 290 290 290 290 290 291 292 291 291 287 286 286 286 285 285 285 286 286 286 285 286 287 288 288
282 283 283 283 284 284 285 286 287 287 288 289 289 289 288 289 288 289 289 290 290 289 286 286 286 285 285 285 285 286 286 286 286 286 287 288 288 289
282 282 282 282 283 284 284 285 286 287 287 288 288 287 287 287 288 288 289 290 289 286 285 285 284 284 284 284 286 286 286 287 288 288 289 288 289 289
282 282 282 282 282 283 284 286 286 286 287 287 287 287 287 287 287 288 289 289 286 285 284 284 284 283 284 285 287 289 288 289 289 289 288 287 288 288
281 281 281 281 282 283 285 286 285 286 287 287 287 286 287 287 288 289 288 286 285 284 283 282 283 285 286 288 289 288 289 288 288 288 288 289 287 287
280 281 281 281 282 283 285 285 285 286 287 287 286 286 287 288 289 287 285 285 284 283 283 284 285 287 289 289 289 289 289 289 290 290 289 288 288 288

GFSNE_850_thetae_009.txt.gz
Theta_e
305 306 309 310 309 309 310 312 315 317 316 317 317 317 318 319 320 320 321 320 322 321 321 321 320 319 320 320 320 320 318 317 318 319 320 319 319 317
306 305 304 305 306 308 309 309 310 311 313 313 314 314 314 315 315 316 317 319 319 320 320 321 320 320 318 321 320 320 319 317 317 318 320 319 319 317
301 301 303 306 307 306 305 305 305 304 309 309 310 311 312 313 315 316 316 316 316 316 319 320 320 321 320 319 320 321 320 319 317 318 319 319 317 315
296 300 302 302 298 297 297 299 298 302 305 307 306 309 311 311 312 313 315 316 316 316 316 317 318 320 321 320 320 320 320 320 318 318 318 319 316 316
295 300 300 296 294 293 293 301 301 293 294 299 305 307 307 308 310 311 313 315 314 316 316 316 317 317 318 319 317 319 320 320 319 319 318 316 311 312
296 298 295 294 293 291 296 301 298 292 295 298 299 303 304 305 306 309 311 314 313 312 313 312 314 315 316 316 314 316 319 319 319 319 319 318 315 314
293 292 290 290 291 291 297 297 296 294 296 295 297 299 300 301 303 305 306 309 310 312 312 312 312 315 316 315 315 315 316 318 318 317 318 313 311 312
290 290 289 289 289 291 293 293 294 295 294 295 295 296 297 299 300 301 302 304 306 309 312 312 312 312 313 314 314 313 313 316 317 316 315 311 307 306
288 288 288 289 290 292 292 293 294 293 293 293 295 296 297 298 299 299 300 302 304 305 306 308 310 310 310 313 314 314 313 313 313 310 307 307 306 301
288 289 290 290 290 291 292 292 292 291 290 293 295 296 297 297 299 300 300 301 302 304 305 305 308 309 310 312 312 309 310 309 306 304 305 303 300 300
289 290 290 290 290 290 290 290 290 290 292 294 294 294 295 295 296 299 301 302 302 304 304 305 306 307 308 309 306 305 305 303 302 302 300 299 296 294
289 289 288 289 289 290 290 290 292 293 294 293 293 292 292 293 295 297 298 298 299 299 303 303 306 303 300 301 299 299 299 299 299 299 296 294 293 292
288 287 287 288 289 288 290 289 290 291 291 291 290 290 291 291 293 294 295 295 296 296 299 301 303 301 299 298 296 297 297 297 297 295 294 293 292 292
287 287 287 287 287 287 287 287 288 289 289 289 289 289 290 292 292 292 293 294 294 295 297 297 299 300 298 295 292 293 294 294 293 293 292 292 293 293
286 286 286 285 286 285 285 286 287 287 288 288 289 289 289 289 291 292 291 291 292 293 295 295 295 297 296 297 293 291 292 292 292 292 292 291 292 291
287 285 284 283 284 283 283 284 285 286 287 288 288 288 288 289 290 290 290 290 290 290 291 292 293 294 295 295 294 292 294 290 289 289 289 290 290 289
285 283 282 283 282 282 282 283 284 284 286 287 287 288 287 288 289 289 289 289 289 289 290 290 291 290 288 288 287 289 287 286 287 287 287 287 285 285
283 282 281 282 281 281 282 282 283 284 285 286 287 287 287 287 288 288 288 288 289 288 289 288 286 285 285 285 285 286 285 285 286 285 284 284 285 285
282 281 281 281 281 281 281 282 283 284 284 285 287 287 286 287 287 287 287 288 288 288 287 285 285 285 285 284 284 284 285 285 285 285 285 286 286 286
281 281 280 280 280 280 281 282 283 283 284 285 286 286 286 286 286 286 287 287 288 287 285 284 283 284 285 286 285 285 286 286 287 287 287 286 287 287
281 280 280 280 280 281 280 282 283 283 284 285 286 286 286 286 286 286 287 287 286 285 284 283 283 284 286 287 287 287 287 287 288 288 288 288 287 287
280 280 280 280 280 280 281 282 283 284 284 285 286 286 286 286 286 287 287 285 284 283 282 282 284 286 288 289 289 289 288 287 288 287 288 287 288 287
279 280 280 280 280 281 282 283 283 284 285 285 286 286 286 287 287 285 285 284 282 282 283 285 287 288 288 288 289 289 289 289 288 289 288 287 287 286

GFSNE_850_thetae_012.txt.gz
Theta_e
301 303 300 299 301 304 308 307 305 306 306 306 307 307 308 308 309 310 312 313 314 314 315 316 317 320 321 321 321 321 320 320 321 321 318 318 320 321
294 293 293 296 301 303 299 297 295 300 303 302 303 304 304 304 304 307 308 309 309 312 315 315 315 316 317 319 320 318 319 320 320 320 320 317 318 320
290 291 294 299 301 298 295 295 293 296 302 301 298 295 295 297 303 305 307 308 310 311 312 314 315 316 316 316 317 320 320 319 319 320 320 320 317 318
290 292 295 295 294 294 294 293 292 300 300 298 296 294 293 293 294 297 303 303 305 309 310 311 314 314 316 316 316 317 318 317 320 320 320 319 319 317
292 292 292 291 291 290 290 290 294 297 296 295 293 293 293 293 295 296 296 299 303 307 309 312 313 312 312 312 314 314 315 316 318 316 317 319 319 318
290 290 289 288 288 289 290 291 295 295 294 294 295 295 294 294 295 295 296 297 299 301 305 307 308 311 311 310 312 312 315 316 315 315 314 316 319 319
288 287 287 287 288 290 291 291 292 293 293 294 293 293 293 293 294 295 297 297 299 300 300 302 305 306 309 311 311 310 312 313 315 315 314 315 317 320
287 287 287 288 289 290 290 291 291 291 291 291 292 292 292 292 294 296 297 297 297 299 300 301 302 305 305 306 307 308 310 311 312 314 314 314 318 318
287 287 288 289 289 288 289 289 290 290 290 290 290 290 291 292 295 294 294 296 297 297 298 299 300 301 303 306 307 309 310 310 312 313 314 313 317 316
287 287 288 288 287 288 289 289 289 288 288 291 292 292 293 294 294 293 293 294 295 297 299 300 301 302 303 305 305 308 308 310 312 311 314 314 314 312
287 287 288 287 287 289 288 288 287 288 287 288 290 290 291 291 291 292 292 293 295 294 297 298 300 301 302 303 305 307 307 309 309 311 311 308 305 303
287 287 286 287 287 288 287 287 287 286 286 288 288 288 289 289 290 290 291 291 292 292 295 296 298 300 300 302 304 303 305 306 307 307 305 301 301 301
286 286 285 286 287 285 286 286 285 286 287 286 287 287 288 288 289 289 289 289 290 289 291 291 294 295 296 299 300 302 302 301 300 299 298 298 298 297
285 285 286 286 285 284 284 284 285 285 284 285 285 286 287 288 288 288 288 289 289 289 290 291 291 292 294 296 297 299 298 298 298 297 296 295 295 294
285 286 285 284 282 282 283 283 283 282 283 284 285 286 286 287 287 287 288 288 289 288 288 290 291 291 292 294 295 294 295 295 295 295 294 294 294 293
285 285 283 282 281 281 281 281 281 282 283 284 283 284 286 286 287 286 287 288 287 287 288 289 289 290 292 292 293 292 293 293 293 293 293 293 293 293
284 283 281 281 280 280 281 281 281 282 282 282 282 284 285 286 286 286 287 287 286 287 287 287 288 289 289 289 288 290 292 293 293 293 293 293 293 293
281 281 282 280 280 280 280 280 281 281 282 282 282 283 284 286 285 286 286 286 286 286 286 286 286 287 288 288 289 291 292 291 292 292 292 291 291 291
280 281 280 280 279 279 279 279 280 281 281 282 282 283 285 285 285 286 286 286 286 286 286 286 285 285 284 283 286 285 285 286 288 288 288 288 288 286
280 280 279 279 279 279 279 280 281 281 281 282 283 284 285 285 285 286 286 286 286 287 285 282 283 283 284 284 283 283 284 285 285 285 284 284 285 285
279 279 279 279 278 278 280 281 280 281 281 283 284 284 285 285 286 286 286 286 286 284 283 283 283 285 286 285 285 284 285 284 285 285 286 285 286 286
278 278 278 278 279 279 281 281 280 281 282 283 284 285 286 286 286 286 286 285 284 283 282 283 285 286 288 288 287 286 285 285 286 286 286 287 288 289
278 278 278 279 279 280 281 281 281 282 283 284 284 285 286 285 285 284 283 282 281 282 284 286 288 288 289 288 288 287 287 287 287 287 287 287 287 287

GFSNE_850_thetae_015.txt.gz
Theta_e
291 290 290 290 293 298 301 302 299 302 298 299 299 300 303 302 300 297 297 298 303 307 309 310 309 309 311 314 315 316 317 318 321 322 322 322 321 322
290 289 290 291 292 296 297 297 298 295 295 296 296 300 299 298 296 296 298 295 295 296 299 304 308 310 311 313 314 315 316 316 317 320 321 320 321 321
289 289 291 292 290 289 290 291 291 291 292 292 296 298 297 295 294 295 294 293 295 296 296 297 301 306 310 311 313 314 316 316 317 318 319 319 320 320
289 291 290 288 288 288 288 290 290 291 291 294 296 294 293 294 295 294 293 295 295 294 295 299 300 305 307 311 314 314 313 315 314 316 317 319 318 319
289 289 288 288 288 288 289 290 291 291 291 292 293 293 293 293 293 293 293 292 293 294 297 298 299 300 302 307 309 311 312 312 312 314 314 315 316 315
288 287 287 288 288 289 289 290 290 290 290 291 291 291 291 291 291 291 291 292 293 294 296 299 298 298 301 303 306 308 308 310 312 312 314 315 317 315
287 287 287 287 288 289 289 289 289 289 290 290 290 290 290 290 290 290 291 291 293 295 295 294 297 298 301 304 305 308 307 311 311 308 311 314 315 315
286 286 287 287 288 289 288 288 289 289 289 289 289 289 289 289 290 291 292 292 293 294 294 294 296 296 297 298 300 303 304 305 305 307 309 312 311 314
286 286 286 287 288 287 287 288 288 288 287 288 288 288 288 287 289 290 292 292 291 292 293 293 293 296 298 299 301 302 304 305 306 308 309 310 311 314
286 286 287 287 286 287 287 288 286 285 286 286 286 286 287 288 289 289 290 290 290 291 292 293 295 295 296 300 301 302 301 302 305 307 308 309 311 313
286 286 287 285 286 287 288 286 285 285 285 285 286 287 287 287 288 289 289 289 290 290 291 291 292 294 296 298 299 300 301 303 306 307 308 310 311 312
286 286 285 285 286 286 286 285 284 284 285 285 284 284 285 286 287 287 288 289 289 289 290 291 290 290 293 296 297 299 300 303 307 308 307 310 310 310
286 285 284 285 287 286 284 283 283 284 284 283 283 284 284 285 286 286 287 287 288 288 288 289 289 289 289 291 292 294 301 304 306 307 306 308 309 309
285 284 284 286 285 284 282 283 283 283 282 282 282 283 284 284 284 285 286 287 287 287 287 287 287 287 288 289 291 294 299 302 304 301 300 300 301 302
284 285 284 283 283 282 281 282 282 281 280 281 282 282 283 283 284 284 286 286 286 287 287 286 286 288 288 288 290 293 297 299 300 299 298 298 299 299
284 283 282 281 282 281 280 280 280 280 281 281 281 282 282 282 283 284 285 286 286 286 286 286 286 287 287 288 289 292 294 295 296 296 295 295 295 295
282 281 280 281 280 280 280 280 280 280 280 280 281 281 282 282 283 284 285 286 286 286 285 285 285 285 286 287 288 290 292 293 295 295 295 294 293 292
281 280 279 280 279 279 279 279 280 280 280 280 281 281 282 282 284 285 286 286 285 285 285 285 286 286 285 285 287 289 292 293 293 294 294 293 293 293
280 279 279 279 279 279 279 279 279 280 280 280 281 281 283 283 284 285 286 285 285 285 285 286 286 283 287 285 287 289 291 291 292 293 293 293 292 292
279 279 278 278 278 278 278 279 279 279 280 280 281 283 283 284 285 285 285 285 285 285 282 282 283 283 286 286 284 283 287 291 292 292 291 291 291 291
278 278 278 278 278 278 279 279 279 279 280 281 282 283 283 285 285 285 286 285 284 283 282 283 284 283 283 284 284 283 285 288 289 289 288 288 287 286
278 278 278 278 278 279 280 279 279 280 281 282 283 284 284 284 284 284 283 282 282 281 283 284 286 286 285 284 284 283 283 283 284 284 284 285 285 285
277 277 277 278 279 280 280 279 280 281 283 283 284 284 284 283 282 281 281 284 286 286 286 287 288 288 288 287 286 284 284 284 284 285 287 287 288 289

GFSNE_850_thetae_018.txt.gz
Theta_e
292 293 293 293 294 295 295 296 297 296 297 295 295 294 293 294 294 299 300 298 296 297 297 296 296 297 298 302 307 309 311 311 314 315 315 316 317 322
291 291 292 293 293 293 291 291 292 292 293 292 293 292 293 294 297 297 296 295 295 297 296 294 298 302 296 297 299 306 308 312 313 314 315 316 315 316
290 291 291 292 291 290 290 290 290 291 292 291 292 292 292 293 294 294 294 295 295 295 295 299 298 294 294 298 298 301 306 309 312 313 314 316 317 316
290 290 290 290 289 289 289 290 290 291 291 292 291 291 292 292 292 293 293 293 293 293 293 294 295 296 296 294 298 301 300 306 310 313 314 315 316 317
289 289 289 289 289 289 289 289 290 290 290 290 290 290 291 291 291 291 292 292 291 292 293 293 294 296 297 298 298 298 300 301 306 310 312 313 314 316
289 289 288 288 288 288 288 289 290 289 289 289 290 290 290 290 290 290 290 290 291 292 292 293 295 296 297 295 298 299 301 305 305 308 310 311 312 313
288 288 288 288 288 288 289 289 289 288 288 289 289 288 288 288 289 289 290 289 289 290 292 293 294 296 295 295 295 299 298 301 303 307 308 310 310 310
287 287 287 287 287 288 288 288 288 289 289 289 288 287 287 288 288 288 288 288 289 289 292 292 292 292 292 294 295 297 298 299 301 303 306 308 310 308
287 287 287 287 287 287 287 287 288 288 288 287 286 286 286 286 287 287 288 288 289 289 290 290 291 292 292 292 294 295 298 300 301 302 303 304 306 307
286 286 286 287 287 287 286 287 288 287 286 285 285 285 286 287 286 287 287 287 288 289 290 291 291 290 291 292 294 296 297 298 301 302 302 303 305 307
286 286 286 286 286 286 287 287 286 285 284 284 285 286 285 285 286 286 287 287 288 289 290 289 290 291 292 292 292 293 295 297 299 300 302 304 305 307
286 286 286 286 286 287 287 285 285 284 283 284 284 284 284 284 285 285 286 286 287 287 289 288 289 288 290 291 294 295 296 298 299 301 303 306 307 307
285 285 285 285 286 285 284 284 284 284 283 283 283 282 283 283 284 284 284 284 285 285 286 287 288 287 289 289 289 290 291 296 300 304 306 307 307 308
285 284 285 285 284 283 283 283 283 283 282 282 282 282 283 283 283 283 283 284 284 285 286 287 287 287 287 287 288 289 291 295 299 305 307 306 307 308
284 284 285 283 282 282 283 282 282 281 281 281 282 282 282 282 282 283 284 284 285 286 286 287 286 286 286 286 286 288 291 295 297 303 303 303 302 303
284 284 282 282 281 282 281 281 281 281 281 281 281 281 281 282 282 283 284 285 286 286 287 286 285 285 285 285 287 289 291 293 295 300 298 298 298 299
284 282 281 281 280 280 280 280 280 281 281 280 280 281 281 282 283 283 284 285 286 286 286 285 284 284 285 285 287 289 290 292 294 297 298 296 296 297
281 281 280 280 280 280 280 280 280 280 280 280 280 281 281 282 283 284 286 286 285 284 284 284 285 285 285 285 286 287 289 292 293 295 295 295 294 295
280 280 280 279 279 279 279 280 279 279 279 280 280 281 282 283 284 285 285 285 285 284 283 284 282 284 287 285 285 287 289 291 293 293 293 293 292 292
279 279 279 279 279 279 279 279 279 279 279 280 281 281 283 283 284 284 285 285 284 283 282 283 282 285 285 284 283 286 289 291 293 292 292 292 291 291
279 278 278 278 278 279 279 278 278 279 280 280 281 283 283 283 283 282 281 282 282 282 283 284 283 283 284 285 286 287 289 291 292 292 291 291 290 290
278 278 278 278 278 279 278 278 279 281 281 282 283 283 283 283 282 281 283 285 285 284 284 286 286 284 284 284 284 285 286 287 289 290 291 291 290 288
278 278 278 278 279 279 278 279 280 282 283 283 283 282 282 282 282 283 285 285 285 286 286 286 286 285 284 284 284 283 283 284 284 284 285 286 286 286

GFSNE_850_thetae_021.txt.gz
Theta_e
291 292 292 292 293 292 294 293 293 293 292 292 292 292 293 292 293 294 293 295 296 297 297 296 297 299 297 298 300 303 303 302 305 309 310 310 311 312
291 291 291 291 291 292 292 291 291 291 291 291 291 292 292 293 292 292 293 293 292 294 295 295 296 295 296 296 299 300 301 302 304 304 306 310 312 312
290 290 291 290 291 290 290 290 290 290 290 291 291 292 291 291 291 291 291 292 292 292 293 294 294 293 293 294 295 297 298 299 300 305 304 307 312 313
289 290 290 290 290 290 289 289 289 289 289 290 290 290 290 290 291 291 290 290 290 291 292 292 292 293 294 294 294 295 297 298 300 300 301 300 306 312
289 289 289 289 289 289 289 289 288 289 290 289 289 289 289 290 290 289 288 288 290 290 290 291 292 292 294 294 295 295 296 299 297 299 300 303 303 310
288 288 289 288 288 288 288 288 289 289 288 289 289 289 289 290 289 288 288 288 289 288 288 289 290 291 292 293 295 296 297 296 295 299 301 303 306 308
287 288 288 288 288 288 288 288 288 288 288 288 289 289 289 288 288 287 287 287 287 288 288 289 289 290 291 292 293 293 292 295 296 296 298 301 304 308
287 287 287 287 287 287 288 288 288 288 288 288 288 289 287 287 286 286 286 287 287 287 288 288 288 289 290 291 292 294 294 295 295 298 298 299 301 305
287 287 287 287 287 286 287 287 287 287 288 287 287 286 285 285 285 286 287 286 286 286 287 288 288 290 291 291 292 292 294 294 294 295 297 299 300 302
286 286 286 286 286 287 287 287 286 286 285 285 285 285 285 285 286 286 285 285 286 286 287 288 289 288 289 289 290 290 291 292 293 294 298 299 300 302
286 286 286 286 286 287 287 286 285 284 284 285 285 285 285 285 285 285 285 285 285 286 286 286 287 289 288 288 288 289 292 294 294 295 296 299 300 301
285 285 285 286 286 286 286 285 284 283 284 284 283 283 283 283 284 284 284 284 284 285 284 285 285 286 287 289 290 291 289 290 291 292 296 297 298 300
285 285 285 285 286 285 284 284 283 285 284 283 282 282 282 283 283 283 283 283 283 284 284 285 285 285 286 287 288 288 288 289 291 295 299 301 301 302
285 284 284 285 284 284 283 283 283 283 282 282 282 282 282 282 282 282 282 283 283 284 284 285 285 286 286 288 287 287 287 289 292 297 302 305 306 306
284 284 285 283 283 282 282 282 282 281 281 282 282 281 281 281 281 282 283 283 284 285 286 287 287 287 287 285 285 285 287 290 293 297 301 304 303 305
284 284 282 282 282 281 281 281 281 281 281 281 281 280 281 281 282 283 283 285 285 286 287 287 287 285 284 285 286 286 288 290 293 296 300 300 301 303
284 282 281 280 280 280 280 280 280 280 280 280 280 280 281 281 282 284 284 286 286 285 284 284 284 284 284 285 287 288 289 290 293 294 298 297 296 297
282 281 280 280 280 280 280 280 280 280 280 279 280 280 281 281 283 284 285 286 285 284 283 283 283 284 286 285 286 288 289 291 293 294 296 297 296 297
280 280 280 279 279 279 279 279 279 279 279 279 280 280 281 282 283 283 283 284 284 284 283 283 283 285 286 285 286 287 290 291 293 294 295 295 294 294
279 279 279 279 279 279 279 279 279 279 280 280 281 282 282 283 283 283 282 283 283 282 283 283 284 284 284 283 284 286 290 292 293 292 292 293 293 294
279 279 279 279 279 279 279 279 279 279 280 281 282 282 282 283 283 283 283 284 284 284 285 285 283 284 285 286 286 287 288 292 292 292 291 291 292 292
278 278 278 279 279 279 279 279 279 281 282 283 282 282 282 282 283 283 284 284 284 285 285 284 284 284 286 287 286 286 288 289 290 291 291 291 290 290
278 278 278 279 280 279 279 280 281 282 282 282 282 282 283 284 284 284 285 285 285 285 285 285 284 284 285 285 285 286 287 288 290 291 290 291 291 291

GFSNE_850_thetae_024.txt.gz
Theta_e
290 290 290 290 290 291 291 291 292 292 291 290 290 290 290 290 291 292 291 291 292 292 293 293 294 294 296 296 296 297 297 297 298 301 303 303 306 308
289 288 289 290 290 290 290 290 290 290 290 289 290 290 289 290 290 290 289 290 290 292 292 292 293 293 293 294 294 295 294 295 296 297 299 300 303 305
288 287 288 289 289 290 289 289 289 289 289 289 288 288 289 288 288 289 289 289 290 290 290 290 290 292 293 293 293 293 295 296 296 297 298 300 301 304
287 286 287 288 288 288 289 288 288 288 288 288 288 289 288 287 288 288 289 289 290 288 288 288 291 291 291 292 293 293 293 294 295 296 298 299 300 301
286 286 286 287 288 288 288 288 288 288 288 289 288 287 288 288 288 288 289 288 287 287 286 287 288 289 289 290 291 292 293 293 294 295 296 298 299 300
286 285 286 287 288 287 288 288 288 288 288 288 288 288 287 287 288 288 286 286 285 285 286 286 288 288 288 289 290 291 291 293 294 294 294 297 295 298
285 286 287 287 287 287 288 288 288 287 288 288 288 287 287 286 286 286 285 285 285 285 286 287 286 286 286 287 288 290 291 292 293 294 295 296 296 296
285 286 286 286 286 287 287 287 287 288 287 287 287 286 285 285 285 285 285 285 285 286 286 285 285 286 286 287 288 291 292 293 293 293 294 295 295 297
286 285 285 285 285 285 286 287 287 286 287 286 285 284 284 285 285 285 285 285 285 285 284 285 285 286 286 286 287 288 290 291 291 291 293 294 295 296
285 285 285 285 285 286 286 287 286 285 285 284 284 284 285 285 285 284 284 284 284 284 284 285 285 286 285 285 286 287 288 289 290 291 292 293 294 295
286 285 285 285 285 286 286 286 285 284 283 283 284 284 284 283 284 283 283 283 283 283 283 283 284 284 284 284 285 286 288 290 290 290 291 294 295 296
285 285 284 285 285 286 286 285 284 283 283 284 283 282 282 282 282 282 282 282 283 283 282 283 283 284 284 285 287 286 287 287 288 288 290 292 294 295
285 284 284 284 285 285 285 283 283 284 283 282 281 281 282 282 281 281 281 281 282 282 283 283 283 284 284 285 285 286 287 287 287 290 292 293 294 295
284 283 283 285 284 284 283 282 283 283 281 281 281 281 281 280 281 281 282 283 284 283 285 285 284 285 285 285 286 286 286 287 289 291 292 296 299 298
283 283 284 283 282 281 281 281 281 280 280 280 281 280 280 280 281 282 283 284 285 285 285 285 285 285 285 285 285 285 285 289 291 292 294 298 304 304
283 284 282 281 280 280 280 280 280 280 280 280 280 280 280 281 281 283 283 283 284 285 284 283 283 284 284 284 285 287 288 288 291 294 296 300 303 304
283 282 280 279 279 279 279 279 280 279 280 279 279 280 280 281 283 283 283 283 283 284 283 283 283 284 285 284 285 287 289 290 292 295 296 297 298 301
281 279 279 279 279 279 279 279 279 279 279 279 280 281 281 282 282 283 283 283 283 284 283 283 283 286 286 285 286 288 290 292 293 295 295 296 295 296
279 279 279 279 278 279 279 279 279 279 280 280 281 282 282 282 282 282 283 283 283 284 284 283 283 284 284 284 287 288 291 292 294 295 295 295 295 295
279 278 278 278 278 279 279 279 279 280 280 281 282 282 282 282 282 283 283 283 284 284 284 284 285 285 284 284 286 288 291 293 293 294 294 294 293 294
278 278 278 278 279 279 278 279 279 280 281 282 282 282 283 282 283 284 284 285 285 285 285 284 284 286 286 287 287 289 290 292 293 293 293 293 293 293
277 277 278 278 279 279 279 279 280 281 282 283 283 283 283 283 284 284 284 285 286 285 285 284 285 287 287 287 287 289 290 291 292 292 292 292 292 291
277 278 278 279 280 279 279 280 281 281 282 283 283 284 284 285 285 285 285 285 286 286 285 284 284 287 287 287 288 289 290 290 291 292 291 292 292 291

GFSNE_850_thetae_027.txt.gz
Theta_e
289 289 288 287 287 287 288 288 290 290 289 289 289 288 289 288 288 289 289 288 289 290 291 291 292 293 293 292 292 293 294 295 296 297 298 297 297 299
288 288 287 286 286 286 288 288 288 289 289 288 288 288 287 287 288 288 287 288 288 289 289 291 291 292 291 291 291 292 294 294 295 296 296 296 297 299
287 287 287 286 285 286 286 287 288 288 288 287 287 287 287 287 287 287 288 287 287 288 290 290 290 290 290 289 290 292 293 293 293 294 296 297 298 299
287 287 286 285 286 287 287 287 287 287 287 287 288 288 287 287 287 287 287 287 287 288 288 288 288 288 288 288 290 290 291 291 292 292 293 294 295 297
287 287 286 285 286 286 287 287 287 287 288 288 287 287 287 287 287 287 287 285 286 285 285 285 285 286 287 288 290 290 289 290 291 292 293 293 294 296
287 286 285 285 286 286 287 287 287 287 287 287 287 288 287 287 286 285 284 284 284 285 284 285 285 286 287 287 286 287 288 289 290 290 291 293 294 295
286 286 285 285 286 286 287 286 286 286 287 288 287 287 286 284 284 284 284 284 284 284 285 285 285 285 284 284 285 286 287 289 290 291 292 293 294 294
286 286 285 285 285 286 285 286 287 287 286 287 287 286 284 284 284 283 284 285 285 284 284 284 284 284 284 284 285 286 288 289 288 290 291 293 293 293
286 285 285 285 285 285 285 286 286 286 286 285 285 284 284 283 284 285 284 283 283 283 283 283 283 283 283 284 284 286 287 287 289 290 290 291 292 292
285 285 285 285 284 285 285 285 286 285 284 284 283 284 284 285 284 283 283 283 283 282 282 283 283 283 282 283 284 285 285 286 287 287 289 290 291 292
285 284 285 284 284 285 285 286 284 283 282 283 284 284 283 282 282 283 282 282 282 282 282 282 282 282 282 283 284 285 286 287 288 289 288 289 291 291
284 284 283 283 284 285 285 284 282 282 283 283 282 281 281 281 281 281 281 281 281 281 283 282 282 282 283 283 285 285 285 286 286 287 288 289 290 290
284 283 283 283 285 284 284 282 282 283 282 281 280 280 281 281 280 281 281 281 281 281 284 283 283 283 283 283 284 285 285 286 286 286 287 288 288 290
284 283 283 284 283 282 281 282 282 282 280 280 280 280 280 280 281 282 282 283 283 283 285 284 284 283 283 284 284 285 285 287 288 289 290 291 292 292
283 283 282 282 281 280 280 281 281 279 280 280 280 280 280 281 281 282 283 283 283 283 284 284 284 283 282 283 284 284 285 288 290 290 292 292 293 295
283 282 281 280 279 279 280 280 279 279 280 280 280 280 281 281 281 282 282 283 283 283 284 284 283 282 283 284 284 285 287 287 291 292 293 295 297 301
282 281 279 279 279 279 279 279 279 279 279 279 280 281 281 281 282 282 282 283 283 283 284 284 284 285 286 285 285 287 289 291 292 294 295 297 299 302
280 279 278 278 278 279 279 279 279 279 279 280 281 281 281 282 282 282 283 283 283 284 284 284 284 285 286 286 287 288 291 292 293 294 294 295 296 299
278 278 278 278 278 279 279 278 278 279 280 281 281 281 282 282 282 283 284 284 284 285 284 284 285 285 285 285 288 289 292 293 293 294 294 294 295 295
278 278 278 278 278 279 278 278 279 280 281 281 282 283 283 283 283 283 284 284 285 285 284 284 285 286 286 286 287 289 292 293 293 293 293 293 293 295
278 278 278 278 279 279 279 279 280 280 280 282 283 284 284 283 283 284 285 285 285 285 284 285 286 286 288 289 289 290 291 293 293 293 293 293 293 293
278 278 278 279 280 279 280 280 280 282 283 283 284 285 285 284 284 285 285 285 286 285 285 286 287 288 289 290 290 291 291 292 293 293 293 293 293 293
278 278 279 280 280 281 281 281 282 283 284 284 285 285 285 285 286 286 286 286 286 285 285 285 287 288 289 289 290 291 291 291 292 292 292 292 293 294

GFSNE_850_thetae_030.txt.gz
Theta_e
289 288 288 287 287 286 286 285 287 287 287 287 288 288 287 287 287 287 287 287 288 289 289 289 290 290 291 292 293 294 294 293 294 293 294 296 296 298
288 287 287 287 286 285 285 286 287 287 287 287 287 287 287 287 287 287 287 288 287 287 288 289 289 290 291 292 293 293 293 292 292 292 294 296 297 298
287 287 287 286 286 285 285 286 286 286 287 287 286 287 287 287 286 287 287 287 287 287 287 287 288 289 290 290 291 290 290 290 291 292 294 295 295 296
287 287 287 286 285 285 285 286 286 286 286 287 287 286 286 286 287 287 287 286 285 285 285 286 287 288 287 288 288 288 289 289 290 291 292 293 293 294
287 287 286 286 285 285 285 286 286 286 286 286 286 286 286 287 286 286 286 284 283 283 284 284 285 286 286 287 287 288 288 289 289 289 290 291 292 293
286 286 286 286 285 286 286 286 286 286 286 286 286 287 286 286 286 284 283 283 283 284 284 285 285 285 285 286 286 287 287 286 287 288 289 290 291 291
286 286 286 285 286 286 286 286 285 285 286 286 286 286 286 284 284 283 283 283 284 284 284 283 283 283 283 284 284 284 285 285 287 288 289 290 291 291
286 286 285 284 284 285 285 285 286 286 285 286 287 284 284 283 283 283 283 284 283 283 283 283 283 282 282 282 283 284 285 286 287 288 289 290 290 291
285 284 284 284 284 283 284 285 284 285 285 284 283 283 283 283 284 284 283 282 282 282 282 282 282 282 282 282 283 284 285 286 286 287 288 288 289 290
284 284 284 284 283 284 285 285 285 284 283 282 282 283 284 283 283 282 282 282 282 282 281 281 282 282 282 282 283 284 284 285 286 287 287 287 288 289
284 285 284 283 283 285 286 284 283 282 282 283 283 283 282 282 282 282 282 281 281 281 281 281 282 282 282 283 284 284 285 285 286 287 288 289 290 289
285 284 283 283 284 285 284 283 282 281 283 283 282 281 281 282 281 281 281 280 280 281 282 281 282 282 283 283 283 283 283 285 285 286 287 287 288 289
284 284 283 283 284 283 283 282 281 283 282 281 280 281 281 281 282 281 281 281 280 281 283 282 282 283 283 283 283 283 283 284 284 285 286 286 288 289
284 283 283 283 282 281 281 281 282 282 280 280 280 280 281 281 282 282 282 282 282 282 283 283 283 283 283 284 283 283 284 285 286 287 288 290 289 288
283 283 282 281 280 280 280 281 280 280 279 280 280 280 281 282 282 282 282 283 283 284 284 284 284 283 283 283 283 284 285 287 287 289 288 289 290 290
282 282 281 280 279 280 281 280 280 279 280 279 280 281 281 282 282 282 282 283 283 285 285 284 284 284 284 285 285 286 287 285 291 292 293 293 293 292
282 280 279 279 279 280 280 280 279 279 279 280 281 281 282 282 283 283 283 283 283 284 285 285 285 285 286 287 287 287 290 291 292 293 294 295 296 298
280 279 279 278 278 279 279 279 279 280 280 281 281 282 282 282 282 283 284 283 284 285 285 285 285 287 288 289 288 289 292 292 292 292 293 293 299 300
279 278 278 278 278 279 279 279 280 280 281 281 282 282 282 283 283 284 284 284 285 285 285 285 286 286 286 286 289 291 292 293 293 293 293 292 293 297
278 278 278 278 279 279 280 280 280 281 282 282 283 284 284 283 284 284 284 285 285 285 285 286 287 287 287 287 287 290 292 293 293 293 293 292 293 296
278 278 278 279 280 280 281 281 281 282 282 283 284 284 285 285 285 285 285 286 286 285 285 286 287 288 290 291 290 291 292 293 293 294 293 292 292 292
278 278 279 280 281 281 281 282 282 283 284 284 285 285 286 285 285 286 286 287 286 286 285 287 288 290 291 290 290 291 292 292 293 293 293 293 292 291
278 279 280 281 281 282 282 283 283 284 285 285 286 286 286 286 286 286 286 287 287 286 285 287 288 290 290 290 290 290 291 292 292 292 292 293 294 294

GFSNE_850_thetae_033.txt.gz
Theta_e
289 288 287 287 287 286 286 285 285 286 285 286 286 286 286 286 286 287 287 286 287 288 289 290 289 290 290 291 291 292 293 294 295 295 296 297 297 297
288 287 287 287 286 286 285 285 285 285 285 285 285 286 286 286 286 286 286 287 287 287 288 288 289 289 289 289 289 290 291 293 293 294 295 295 296 295
287 287 287 286 286 286 286 285 285 285 285 285 285 285 285 285 285 286 286 286 286 286 287 287 287 287 287 288 289 289 290 291 291 292 293 293 293 294
287 286 286 286 286 286 285 285 285 285 285 285 286 285 285 285 286 286 286 286 286 286 285 285 285 286 287 287 288 288 288 289 289 290 290 290 292 293
286 286 286 286 286 285 285 285 285 286 286 285 285 285 285 286 285 286 284 284 283 283 284 284 285 285 286 287 287 287 288 288 289 289 290 290 291 291
286 286 286 285 285 285 285 285 285 285 285 285 285 285 285 285 284 283 283 283 283 283 283 284 284 284 285 285 285 286 286 287 287 287 288 289 289 289
286 285 284 284 284 285 285 285 284 285 285 285 285 285 283 283 282 282 283 283 283 283 283 282 282 282 282 283 283 283 284 285 285 286 287 288 288 289
284 284 283 283 284 284 284 284 285 285 286 286 284 283 282 282 282 283 284 283 282 282 282 282 282 282 282 282 282 283 284 285 286 286 287 288 288 289
284 284 284 284 284 283 284 284 286 285 284 283 282 282 282 283 284 283 282 282 282 282 282 282 281 281 282 282 283 283 284 285 286 286 286 287 287 288
284 284 285 284 283 284 285 286 284 283 282 282 282 283 284 283 282 282 282 282 282 281 281 281 281 282 282 283 283 284 284 284 285 286 286 287 287 288
284 285 284 283 283 285 285 284 283 282 282 283 283 282 281 282 282 282 282 281 281 281 281 280 281 281 281 282 283 283 284 284 285 286 287 288 288 288
285 284 283 283 284 284 284 283 282 282 283 283 282 282 282 282 282 282 281 280 280 280 281 281 281 281 282 282 283 283 283 284 284 285 285 287 287 288
284 283 282 283 284 283 283 282 281 283 282 281 281 281 281 282 283 282 282 281 281 281 283 282 281 282 281 282 283 283 283 285 285 286 287 285 286 287
284 283 283 283 282 281 281 281 282 281 281 280 280 280 282 283 283 283 283 283 283 282 284 284 282 283 283 283 283 285 286 287 287 288 289 289 288 287
283 283 282 281 280 280 281 280 280 280 279 279 280 281 282 283 283 283 284 284 284 285 285 284 284 284 284 283 284 286 287 288 289 290 289 289 289 288
282 282 280 280 280 280 281 281 280 279 279 280 280 282 283 283 284 283 283 284 284 285 285 285 285 285 286 287 288 288 288 286 291 292 292 292 291 291
282 280 280 280 280 281 281 281 280 280 280 281 281 282 283 283 284 284 284 284 283 284 285 286 287 288 289 289 289 289 289 291 292 292 292 293 294 294
280 279 279 279 279 280 280 280 281 281 281 282 282 283 283 283 284 285 285 284 284 285 285 286 287 288 290 290 290 289 289 291 293 292 292 293 295 297
279 279 279 279 279 280 280 280 281 282 282 282 282 283 283 284 284 285 285 285 285 285 286 287 287 287 286 287 290 290 290 291 292 292 292 293 296 299
279 279 279 279 280 280 280 281 282 283 283 283 283 284 285 284 285 285 285 286 285 286 286 287 288 288 288 288 288 291 291 290 292 293 292 293 297 300
279 279 279 280 280 281 281 282 282 283 283 284 285 285 286 285 285 285 286 286 286 286 286 287 288 289 291 292 290 291 292 291 291 291 292 292 293 298
279 279 280 280 281 281 282 283 284 285 285 285 286 286 286 286 285 285 286 286 286 286 285 287 289 290 291 291 290 291 291 292 292 291 291 291 290 291
279 279 280 281 282 282 283 284 285 286 286 286 286 286 286 286 286 286 286 287 287 286 285 287 289 289 290 290 291 291 291 291 291 291 291 291 292 290

GFSNE_850_thetae_036.txt.gz
Theta_e
289 288 288 287 287 287 286 286 285 285 285 285 285 285 285 285 285 285 285 285 287 287 288 288 289 289 290 290 291 291 291 292 292 293 294 295 296 297
288 288 287 287 286 286 286 286 285 285 285 285 285 285 285 285 284 285 285 285 286 286 287 288 288 288 289 290 289 289 289 290 291 291 292 293 295 296
288 287 287 286 286 286 286 285 285 285 285 285 285 284 284 284 284 285 285 285 285 286 286 287 287 287 287 287 288 288 289 290 290 291 291 292 294 295
287 286 286 286 286 285 285 285 285 285 285 285 284 284 284 285 285 285 285 284 283 283 284 285 285 286 286 287 287 287 288 288 289 289 290 290 291 293
286 286 285 285 284 284 284 284 285 285 285 284 284 284 284 285 285 284 283 282 282 283 283 284 284 285 286 286 286 287 287 287 287 288 288 289 290 290
285 285 284 284 283 284 285 285 285 284 284 284 284 285 285 284 283 282 282 282 283 283 283 283 284 284 284 284 284 285 285 285 286 287 287 288 288 289
285 284 284 283 284 285 285 285 284 284 285 286 284 284 283 282 282 282 282 283 283 282 282 282 282 282 282 283 283 283 283 284 285 286 286 287 287 288
284 284 284 284 284 284 284 284 285 286 285 284 283 282 282 282 283 283 283 282 282 282 282 282 282 282 282 282 282 283 284 285 286 286 287 287 288 288
284 284 284 284 283 283 283 284 285 285 283 283 282 282 282 283 283 282 282 282 282 282 281 282 281 281 282 282 282 283 284 284 285 286 286 287 287 288
284 284 284 283 283 284 284 285 284 283 282 282 282 283 283 283 282 282 282 282 282 282 281 281 282 282 282 282 283 283 283 284 285 286 286 286 287 287
284 284 283 283 283 284 285 284 283 282 282 283 282 282 282 282 282 282 282 281 281 281 283 281 282 281 282 283 283 283 283 284 285 286 286 286 287 287
284 284 283 283 284 284 284 283 282 281 283 283 282 282 283 283 283 282 281 280 280 280 284 281 281 281 282 282 283 284 285 286 285 285 285 286 287 287
284 283 283 283 284 283 283 281 281 283 282 281 282 282 283 283 283 283 283 282 281 281 285 282 281 282 281 282 284 286 285 287 288 288 287 286 286 287
283 283 282 283 282 281 281 281 282 281 281 281 281 282 282 283 284 284 284 284 284 283 284 284 283 283 283 283 283 288 289 288 288 290 291 290 289 289
283 283 282 281 280 280 281 280 281 281 281 280 281 282 283 284 284 285 285 285 285 286 285 285 285 285 285 284 284 288 289 288 289 290 291 291 291 291
282 282 281 280 280 280 281 282 282 281 280 280 281 283 283 284 284 284 285 285 285 286 287 286 287 287 287 288 289 290 289 287 289 290 291 291 291 291
282 280 280 280 280 281 281 282 282 282 281 282 282 283 284 284 285 285 285 285 285 285 286 288 288 289 290 290 290 290 289 289 289 292 292 292 293 293
280 280 280 279 280 281 281 281 282 282 282 283 283 283 284 284 284 285 285 285 285 285 285 287 288 289 290 291 290 290 289 290 290 292 292 294 294 293
280 280 279 279 280 281 281 281 282 283 283 284 284 284 284 284 284 285 285 285 286 285 286 287 288 287 286 287 291 290 290 290 290 293 294 297 295 293
279 279 279 280 281 281 281 282 283 284 284 284 284 284 284 283 284 285 285 285 285 285 286 287 288 288 288 288 288 291 290 290 290 291 293 296 295 294
279 279 279 280 281 281 282 283 283 284 284 284 285 284 284 284 285 285 285 286 286 286 285 287 288 289 291 291 291 291 291 290 290 290 292 295 295 296
279 279 280 281 282 282 283 283 284 285 285 285 285 285 285 285 285 286 286 286 286 286 285 286 289 290 290 291 290 291 291 291 290 290 291 291 292 292
279 280 281 282 282 283 284 285 285 286 286 286 286 286 286 285 285 286 286 287 287 286 286 286 288 289 289 290 290 291 291 291 291 290 291 291 291 293

GFSNE_850_thetae_039.txt.gz
Theta_e
290 289 288 288 287 287 286 286 286 286 286 286 286 286 285 285 285 285 285 286 286 287 287 288 288 289 290 290 291 291 291 292 292 293 293 293 294 295
289 288 288 287 287 286 286 286 286 286 285 286 285 285 285 285 285 285 285 285 285 286 286 287 287 288 288 289 289 289 290 290 291 291 291 292 293 293
288 288 287 286 286 285 285 285 284 284 285 284 285 285 285 285 285 285 285 285 285 285 285 286 286 287 287 288 288 289 289 289 290 290 291 291 292 293
288 287 286 285 285 284 284 284 284 284 285 284 284 284 285 285 285 285 284 284 283 283 284 285 286 286 286 287 287 288 288 288 289 289 289 290 291 292
287 286 285 284 284 284 284 284 284 285 284 284 284 285 285 285 285 283 283 283 283 283 283 284 284 285 286 286 287 287 287 287 288 288 288 289 289 290
285 285 284 284 284 284 285 285 285 285 284 285 285 285 284 284 283 282 283 283 283 283 283 283 284 284 285 285 285 285 285 286 286 286 287 287 288 288
285 284 284 284 284 285 285 285 284 285 285 285 286 284 283 283 282 282 283 283 283 283 283 283 283 283 284 284 284 284 284 284 285 286 286 287 287 287
284 284 284 284 284 284 284 284 285 285 286 285 284 283 282 283 282 283 283 283 283 283 283 283 283 283 283 283 283 284 284 285 286 286 286 286 287 288
284 284 284 284 283 283 283 284 285 285 284 283 283 282 282 283 284 283 282 282 282 283 282 282 283 282 283 283 284 283 284 284 285 286 286 287 287 288
284 284 284 283 283 284 284 285 284 283 283 282 282 283 283 283 282 282 282 282 282 283 282 281 283 282 283 284 285 285 285 284 285 286 286 286 287 287
284 284 283 283 283 284 285 284 283 283 282 283 283 282 282 282 282 281 282 281 281 282 284 281 283 282 283 286 286 286 285 285 285 286 286 287 287 288
284 284 283 283 284 285 284 283 282 281 283 283 282 282 283 284 283 282 282 281 280 280 284 282 281 282 282 284 286 287 288 289 289 287 286 286 286 287
284 283 283 283 284 283 283 282 281 283 282 282 282 283 283 283 284 284 283 282 282 281 286 281 282 283 281 282 286 288 288 290 289 288 289 289 288 287
283 283 282 283 282 281 281 281 282 281 281 282 282 283 283 284 284 285 285 285 285 284 286 285 283 284 284 283 283 289 290 290 288 288 289 289 290 290
283 283 282 281 281 281 281 281 282 282 282 281 281 283 283 284 285 285 285 285 286 286 286 286 285 286 285 284 285 288 290 289 288 289 290 290 290 291
282 282 281 280 280 281 282 282 282 282 280 281 282 283 284 284 285 284 285 285 285 287 287 287 286 286 287 289 288 290 290 288 289 290 290 292 292 291
282 280 280 280 280 281 282 282 282 282 282 283 283 283 284 284 285 284 284 284 285 286 287 288 288 289 290 290 289 290 289 289 289 291 293 294 292 291
280 280 280 280 280 281 281 282 283 283 283 284 284 283 283 283 283 284 284 285 285 286 286 286 288 289 290 290 291 290 290 289 290 292 294 293 292 291
280 280 280 279 280 281 281 282 283 283 284 284 284 284 283 283 283 284 284 285 285 286 286 286 287 287 286 288 290 291 290 290 290 293 294 293 293 291
280 280 279 280 281 281 282 282 283 284 285 284 284 284 284 284 284 284 285 285 285 285 286 286 287 288 287 288 289 291 290 290 290 290 293 295 293 293
280 280 280 281 282 282 282 283 284 285 284 284 285 285 285 284 285 285 285 286 286 286 286 286 287 288 289 291 290 291 291 291 290 290 290 294 293 294
279 280 281 282 282 283 283 284 285 285 286 285 285 285 286 285 285 285 285 286 286 286 286 286 287 288 289 290 290 291 291 291 291 291 291 291 290 291
279 280 282 282 283 284 284 285 285 286 286 286 286 286 286 286 285 286 286 286 287 286 286 286 287 288 289 289 290 291 290 290 290 291 291 291 291 292

GFSNE_850_thetae_042.txt.gz
Theta_e
291 290 290 289 289 288 288 288 288 289 289 289 289 288 288 287 287 287 287 287 287 287 288 288 288 289 289 290 290 291 291 292 292 293 293 293 294 295
290 289 289 288 288 288 288 288 288 288 287 288 288 287 287 287 286 287 287 287 286 287 287 287 288 288 288 289 289 290 290 291 291 292 292 293 293 294
289 289 288 287 287 287 287 287 287 287 286 287 287 287 287 287 287 287 287 286 286 285 286 286 287 287 288 288 289 289 290 290 290 291 291 292 292 293
289 288 287 287 286 286 286 286 286 286 286 286 286 286 286 287 287 286 286 285 285 285 285 286 286 287 287 288 288 288 289 289 289 290 290 290 291 292
288 287 286 286 286 286 286 286 286 286 286 286 286 286 286 287 287 286 285 285 285 285 285 285 286 286 287 287 287 288 288 288 288 289 289 289 289 290
287 286 285 285 286 286 286 286 286 286 286 286 286 286 287 286 285 285 285 285 285 285 285 285 285 286 286 286 287 287 287 287 287 288 288 288 288 289
286 286 286 285 284 285 286 286 286 285 285 285 286 287 286 285 285 284 284 284 285 285 284 285 285 285 285 285 286 286 286 286 287 287 287 287 288 288
286 286 285 285 285 285 285 285 285 285 286 287 285 285 285 284 284 284 284 285 284 284 285 284 284 284 285 285 285 286 286 286 286 287 287 287 288 288
285 285 285 285 285 285 285 285 285 285 286 285 285 284 284 284 283 284 284 283 283 284 284 284 284 284 285 285 285 286 286 286 286 287 287 287 288 288
285 285 285 285 285 285 285 285 285 285 285 284 283 283 283 284 284 283 283 283 283 284 284 283 284 284 285 285 288 289 288 286 287 287 287 288 288 288
285 285 285 285 285 285 285 285 285 284 284 283 283 284 284 283 283 283 283 282 283 283 285 283 284 284 284 287 287 287 287 287 289 289 287 288 288 288
285 285 285 285 285 285 285 284 283 283 282 283 284 283 282 282 282 282 282 282 282 281 284 283 283 283 283 285 287 289 290 291 289 289 288 288 288 288
285 284 285 284 284 284 283 283 282 283 283 283 282 282 283 282 282 282 282 282 282 282 286 283 282 283 282 283 289 291 289 289 289 289 289 289 289 289
284 284 284 284 283 282 282 281 282 282 282 281 281 282 282 284 284 285 285 285 284 284 286 285 283 283 284 284 284 290 291 290 289 289 289 290 290 290
283 283 284 283 281 281 281 281 282 281 281 280 280 282 283 284 284 284 285 285 285 286 286 286 285 285 284 284 285 287 288 290 290 290 290 290 291 291
283 283 282 281 280 280 281 281 281 280 280 280 280 282 283 282 284 283 283 284 284 286 286 286 286 286 286 287 287 289 290 289 290 290 290 292 293 292
282 281 281 280 280 280 280 280 280 280 280 281 282 283 283 283 284 284 283 283 283 285 286 287 287 287 288 288 289 290 290 290 290 290 290 291 293 291
280 280 280 280 280 279 279 281 282 283 283 283 284 283 283 283 283 284 284 284 284 285 285 286 286 287 288 289 290 290 290 289 290 290 290 291 293 291
279 279 279 279 279 279 281 282 283 284 284 284 283 284 283 283 284 284 284 284 285 285 286 285 286 286 287 287 290 291 290 290 290 290 290 291 292 293
278 278 278 279 280 281 282 283 284 285 285 284 284 284 285 284 284 284 285 285 284 285 285 286 286 286 286 287 288 291 291 290 290 290 290 291 292 293
278 278 279 281 282 282 283 284 284 285 285 285 285 285 285 285 285 285 285 286 284 285 285 286 286 287 288 289 289 290 291 290 291 291 290 290 290 291
279 280 281 282 283 283 283 284 285 285 286 286 286 286 286 286 286 286 286 286 286 285 285 286 287 287 288 288 288 289 290 290 291 291 291 291 291 290
280 281 282 283 283 284 284 285 285 286 286 286 286 286 286 286 287 286 286 286 285 286 285 286 287 287 288 288 289 289 290 289 289 290 292 292 292 291

GFSNE_850_thetae_045.txt.gz
Theta_e
293 292 292 291 290 290 290 289 289 290 290 289 290 290 289 288 288 288 287 287 288 289 289 289 289 289 290 290 291 291 291 292 292 292 294 294 294 295
292 292 291 290 289 289 289 289 289 288 288 288 288 288 288 288 287 288 287 288 288 288 288 288 288 288 289 289 290 290 291 291 292 292 292 293 294 294
291 291 290 289 289 288 288 287 287 287 287 287 288 288 287 287 287 287 287 287 287 287 287 287 288 288 289 289 289 290 290 291 291 291 292 292 293 293
291 290 289 288 288 287 287 287 287 287 287 287 287 287 287 287 287 287 287 287 286 286 287 287 288 288 288 289 289 289 290 290 290 291 291 291 292 292
290 289 288 288 287 287 287 287 287 287 287 287 287 287 286 287 287 288 286 286 286 286 286 286 287 287 288 288 288 289 289 289 289 289 290 290 290 291
289 288 288 287 287 287 286 286 286 286 286 286 286 286 287 287 286 286 286 285 285 285 285 286 286 286 287 287 287 287 288 288 288 289 289 289 289 289
288 288 287 287 286 286 286 286 286 286 285 285 286 287 287 286 285 285 285 285 284 285 285 286 285 285 285 286 286 286 287 288 288 289 289 289 289 289
287 287 287 286 286 286 286 286 286 286 286 286 286 286 286 285 284 284 284 284 285 284 285 284 285 285 285 286 286 287 287 287 288 288 289 289 289 289
286 287 286 286 286 286 285 286 286 285 286 286 286 285 285 284 283 284 285 284 284 284 283 284 284 285 285 286 286 287 288 289 288 289 289 289 289 289
286 286 286 286 286 286 285 285 285 285 285 285 285 284 284 284 285 285 284 283 283 283 283 284 284 285 285 285 287 289 289 288 288 289 290 290 290 289
286 286 286 286 285 286 286 285 285 284 284 284 284 284 285 285 284 284 283 283 283 283 284 283 284 284 285 287 287 288 288 289 290 290 289 289 290 289
285 285 285 285 286 286 285 285 284 283 283 283 283 283 283 283 284 283 283 283 283 282 284 283 282 282 283 284 286 289 290 291 290 291 289 289 289 289
285 285 284 285 285 285 285 284 283 283 283 283 282 282 283 283 282 283 282 282 282 281 285 281 281 282 281 282 287 289 289 290 289 290 290 290 290 290
284 284 284 285 285 284 283 282 283 283 282 282 281 282 281 281 283 284 284 284 283 281 284 284 282 282 283 283 284 289 290 291 290 289 289 290 290 290
284 284 284 284 283 282 281 282 282 281 281 281 281 282 282 283 284 284 284 284 283 285 285 285 284 284 284 284 284 286 287 290 290 289 290 290 290 290
283 283 283 282 281 281 281 281 281 281 281 282 282 283 283 283 284 284 283 284 282 285 285 286 285 284 284 285 285 286 288 288 289 290 290 290 289 291
283 282 281 281 281 281 281 281 282 282 282 283 282 283 283 283 284 284 284 283 281 283 285 286 286 285 286 286 287 289 289 289 289 289 290 290 290 290
281 280 280 280 280 280 281 282 283 283 283 283 283 283 283 283 284 284 284 283 282 283 283 285 284 285 286 287 287 288 288 289 289 289 289 289 290 291
280 280 280 280 280 280 281 282 283 284 284 284 284 284 284 284 284 285 285 284 284 284 285 284 285 285 286 286 287 288 288 290 289 289 289 289 290 291
279 279 279 279 281 282 282 282 283 284 285 285 285 285 285 285 285 285 285 284 284 284 284 284 285 285 286 286 287 289 289 289 289 289 289 290 290 291
279 279 280 281 282 282 283 283 284 285 285 285 285 285 286 285 286 286 286 285 284 284 284 285 286 285 286 287 287 288 290 289 289 290 290 290 290 291
279 280 282 282 283 283 284 284 285 285 286 286 286 286 286 286 286 286 286 286 286 286 286 285 286 286 287 287 288 288 289 289 290 290 291 291 291 291
280 282 283 283 284 284 284 285 285 286 286 286 286 287 286 286 287 286 286 286 286 286 285 285 286 286 287 287 288 288 289 289 290 290 291 291 292 291

GFSNE_850_thetae_048.txt.gz
Theta_e
296 295 294 293 292 291 290 290 289 289 289 289 288 288 287 287 287 287 287 287 288 289 289 290 290 290 290 290 291 291 292 292 292 293 293 294 294 295
295 294 293 292 291 290 289 289 288 288 288 287 287 287 287 287 287 287 286 287 287 288 289 289 289 289 290 290 290 291 291 292 292 293 293 293 294 295
294 293 293 291 290 289 289 288 287 287 287 287 287 287 287 287 286 287 286 287 287 287 287 288 288 289 289 290 290 290 291 291 291 292 292 293 293 293
293 292 291 290 289 288 288 287 287 287 286 287 287 287 286 286 285 286 287 286 285 286 287 287 287 288 288 289 289 290 290 290 290 291 291 291 292 292
292 291 290 289 288 288 287 287 286 286 286 286 286 285 285 285 286 286 285 285 285 285 285 286 286 287 288 288 288 289 289 289 289 290 290 290 291 291
290 289 288 288 288 287 287 287 287 286 286 286 286 286 285 286 285 285 285 285 284 284 284 286 286 285 286 286 286 287 287 288 288 289 290 290 290 290
288 288 288 287 287 287 287 287 287 287 286 286 286 285 286 285 285 285 285 284 284 285 285 285 284 285 285 286 286 286 286 288 289 289 290 290 291 291
288 287 287 286 286 287 287 287 287 286 286 285 286 286 286 285 285 284 284 284 284 285 284 284 284 285 285 285 286 286 287 287 289 289 289 290 290 290
286 286 286 286 286 286 286 286 286 286 286 285 285 284 284 284 284 284 285 285 284 284 283 283 285 284 285 285 286 286 287 288 288 289 289 290 290 290
285 285 286 286 286 286 286 286 286 285 285 284 284 284 284 284 285 285 285 284 284 284 283 283 284 284 285 285 286 287 288 288 288 289 289 289 290 290
284 284 285 285 285 286 286 286 285 285 284 283 283 284 284 284 284 284 283 283 283 283 283 282 283 282 284 285 286 286 286 287 289 289 289 289 289 290
284 284 284 285 285 286 286 286 285 284 283 283 283 283 284 283 284 283 283 282 282 282 284 282 282 281 282 283 285 286 287 289 289 289 290 290 290 290
285 284 284 284 285 285 285 284 284 284 284 283 283 283 284 284 284 284 283 281 281 281 285 281 281 282 281 282 285 286 287 288 289 290 291 290 290 289
284 284 283 284 285 284 284 283 283 284 283 282 282 283 283 284 284 284 284 284 284 283 284 284 282 282 282 282 283 285 287 288 288 289 289 289 289 289
283 283 284 283 282 282 281 282 282 282 282 282 282 284 284 284 284 285 285 285 285 285 285 284 283 283 282 282 283 284 285 288 289 288 289 289 289 289
283 283 282 281 281 281 281 282 282 283 282 283 283 284 284 284 285 284 284 285 284 285 285 285 284 282 283 283 284 285 286 285 288 288 288 288 288 289
283 282 281 281 281 281 282 283 283 283 284 284 284 284 284 284 285 285 285 284 283 284 285 286 285 282 284 285 285 286 287 287 287 288 287 288 288 289
281 280 280 280 280 281 282 283 283 284 284 284 284 284 284 284 284 285 285 285 284 285 284 284 283 284 285 285 285 286 286 287 288 288 287 288 289 289
280 280 280 280 281 282 282 283 283 284 284 284 284 284 284 284 285 285 285 284 285 284 285 285 285 284 285 285 286 286 287 288 288 288 288 288 289 290
280 280 280 281 282 282 283 283 284 285 285 285 285 285 285 285 285 285 285 284 284 284 285 285 285 285 286 286 286 288 288 288 288 289 289 289 290 290
280 280 282 282 283 283 283 284 284 285 285 285 286 286 286 285 285 286 285 285 284 286 285 285 285 285 285 286 286 288 289 289 289 289 290 290 290 291
280 282 282 283 283 284 284 284 285 285 286 286 286 286 286 286 286 285 286 286 286 286 286 286 285 285 286 286 287 288 289 289 290 290 290 290 291 291
282 282 283 284 284 284 284 285 285 286 286 286 286 286 286 286 286 286 286 286 286 286 285 285 285 286 287 288 288 288 289 289 289 290 290 290 291 291

GFSNE_850_thetae_051.txt.gz
Theta_e
298 297 296 295 294 293 292 290 289 289 289 289 288 288 287 286 287 287 287 286 287 288 289 289 290 290 290 291 291 292 292 292 292 293 294 294 295 296
296 295 294 294 293 292 291 290 289 288 288 287 287 287 286 286 286 286 285 285 286 287 288 289 289 289 290 290 290 291 291 292 292 293 293 293 294 295
295 294 293 293 292 291 290 289 288 287 287 287 286 286 286 285 285 285 285 285 285 285 287 287 288 289 289 289 290 290 290 291 291 292 292 293 293 294
294 293 292 291 290 289 288 288 287 287 286 286 286 286 285 286 285 285 285 285 285 284 286 287 286 287 287 288 289 289 289 290 290 291 291 291 292 292
293 292 291 290 289 288 288 287 287 287 287 286 286 286 286 285 285 285 285 284 284 284 284 285 285 286 287 288 287 288 288 288 288 289 289 290 291 291
291 290 289 288 288 287 287 287 287 287 287 286 286 286 285 285 285 285 284 284 284 284 285 285 285 285 285 285 285 286 286 286 287 288 289 289 290 290
290 288 288 287 287 286 287 287 287 287 286 286 286 285 285 285 284 284 284 284 284 285 285 285 284 285 285 285 286 286 286 286 288 288 289 289 290 290
289 288 287 286 286 286 286 286 287 287 287 286 286 285 285 284 283 284 283 284 285 285 284 284 285 285 285 285 285 285 285 285 287 288 288 289 289 291
287 286 285 285 285 285 285 286 286 286 286 286 285 284 284 283 283 284 285 285 284 284 283 283 285 284 285 285 285 286 286 286 286 287 289 289 290 290
285 285 284 284 284 285 286 286 286 286 285 285 284 284 284 284 285 284 284 283 283 284 284 282 283 284 284 284 285 286 286 286 286 287 287 287 288 288
285 284 284 284 284 286 286 286 286 285 284 284 283 284 284 283 283 283 283 283 283 284 284 282 283 282 283 284 285 285 285 286 286 287 288 287 288 288
284 284 283 284 285 285 286 286 285 284 283 284 284 284 284 284 284 284 283 282 282 281 284 282 282 281 281 282 283 284 286 286 287 287 288 289 289 288
284 283 283 283 285 285 285 284 284 284 284 284 283 284 285 285 285 285 284 283 282 282 285 282 281 282 281 281 283 284 286 287 287 288 289 289 289 288
283 283 283 284 284 283 283 282 283 283 283 283 284 284 284 285 285 285 285 284 284 284 285 284 282 282 282 281 282 285 286 286 287 288 289 289 289 289
283 283 283 282 281 281 281 282 282 283 283 283 284 284 284 285 285 285 285 285 285 286 286 285 284 284 283 282 282 284 285 286 287 287 287 288 288 288
283 283 282 281 281 281 282 283 283 283 283 283 284 284 285 285 285 285 285 285 285 286 286 286 285 284 283 284 284 284 286 284 286 287 287 287 288 288
282 282 281 281 282 283 283 283 284 284 284 284 285 285 285 285 285 285 285 284 283 284 285 286 285 285 285 284 284 285 286 286 287 287 287 286 287 288
281 280 281 281 282 283 283 284 284 284 284 285 285 285 285 285 284 285 284 284 284 285 285 285 285 285 285 284 284 285 286 286 287 287 286 286 287 288
280 280 281 282 283 283 283 284 284 285 285 285 285 285 285 284 284 284 284 284 284 285 285 285 285 284 284 284 285 286 285 287 287 287 288 287 288 289
280 281 282 283 283 283 284 284 284 285 285 286 285 285 285 284 284 284 284 285 284 284 285 285 285 285 285 285 285 288 288 287 287 288 288 288 288 290
281 282 282 283 283 284 284 284 285 285 286 286 286 286 285 285 285 285 285 285 285 285 285 285 285 285 286 286 285 288 289 289 289 288 288 289 289 289
282 282 283 283 284 284 284 285 285 286 286 286 286 286 286 285 285 285 285 285 285 285 285 285 286 286 287 286 286 287 288 289 290 290 290 290 290 290
282 283 283 284 284 285 285 285 285 286 286 287 287 287 286 286 286 285 285 285 285 285 285 286 287 287 288 287 287 287 288 289 290 290 291 291 291 291

GFSNE_850_thetae_054.txt.gz
Theta_e
302 300 298 296 295 294 293 292 291 289 289 290 290 289 288 287 287 286 286 286 286 286 287 288 289 290 290 291 291 292 292 292 293 294 294 295 295 296
299 297 296 295 294 293 292 291 290 289 288 288 288 288 287 287 286 286 286 285 285 285 286 288 288 289 289 290 290 290 291 291 292 292 293 294 294 295
299 299 296 294 293 292 291 290 289 288 288 287 287 287 286 286 286 286 285 285 285 285 285 287 287 288 288 288 289 290 290 290 291 292 292 293 293 294
295 294 294 293 292 291 290 289 288 287 287 287 287 286 286 286 285 285 284 284 284 284 285 286 287 287 287 288 288 289 289 289 290 290 291 291 291 292
297 293 292 291 290 289 288 288 287 287 287 287 286 286 286 285 285 284 284 283 284 284 284 285 285 286 286 287 288 287 287 287 288 288 289 289 290 291
292 291 289 289 288 288 287 287 287 287 287 286 286 286 286 285 284 284 283 283 284 285 285 285 285 285 285 286 286 285 286 286 286 287 288 289 289 290
290 288 288 288 287 286 286 287 287 286 286 287 287 286 286 285 284 283 283 284 284 285 285 284 285 285 286 286 286 286 286 285 286 287 288 288 288 289
288 288 287 287 286 285 285 285 287 287 287 286 286 286 285 284 283 283 284 284 284 285 284 284 285 285 286 286 286 285 285 285 286 286 287 287 288 288
288 287 286 285 285 284 284 285 286 286 286 286 285 285 284 283 284 284 284 284 283 284 284 283 285 285 286 285 285 285 285 285 285 286 287 288 288 289
286 285 285 284 284 284 285 286 286 285 285 285 284 284 284 284 285 284 283 283 283 284 285 282 285 285 285 285 285 286 285 285 285 286 286 287 287 288
285 285 284 283 283 285 286 286 286 285 284 284 284 284 284 284 283 283 284 283 283 284 285 282 284 284 284 285 285 285 285 285 285 285 286 285 286 287
285 284 283 283 284 285 286 285 284 284 283 284 284 284 284 284 284 284 284 283 283 281 284 283 282 283 282 282 284 285 285 286 286 286 286 286 286 286
283 283 283 283 284 285 284 283 283 284 284 283 283 284 285 285 285 285 285 284 283 283 285 283 282 283 281 282 284 285 285 286 286 286 287 287 287 287
283 283 284 284 283 282 282 281 282 282 283 283 284 284 285 285 285 285 285 284 284 285 285 284 283 283 283 282 282 285 285 285 286 287 287 287 287 287
283 283 283 282 281 281 281 282 283 283 284 284 284 285 285 285 285 285 285 285 285 286 285 285 284 284 283 283 283 284 285 286 286 287 286 286 287 287
283 282 281 281 281 281 283 284 284 284 284 284 284 285 285 285 285 285 285 284 284 285 286 285 285 284 284 284 284 285 286 283 286 286 286 287 288 287
282 281 281 281 282 284 284 284 284 284 284 285 285 285 285 285 285 285 284 284 284 284 285 285 285 285 285 285 284 286 286 285 286 286 286 286 287 288
281 280 281 282 283 284 284 284 284 285 285 285 285 285 285 285 285 285 284 284 284 285 285 285 285 285 285 284 284 285 285 285 286 286 286 285 286 288
280 281 282 283 283 284 284 284 285 285 285 286 286 286 286 285 285 285 285 284 285 285 285 285 284 283 282 282 285 285 285 286 286 286 287 286 286 289
281 282 282 283 283 284 284 284 285 285 286 286 286 286 286 285 285 285 285 285 285 284 284 285 285 285 284 284 285 288 288 286 286 287 288 288 288 289
281 282 283 283 284 284 284 285 285 285 286 286 286 286 286 286 286 285 285 285 285 285 285 286 286 287 287 287 285 287 289 289 288 287 288 287 289 290
282 282 283 283 284 284 284 285 285 286 286 286 287 286 286 286 285 285 285 285 285 285 286 286 287 287 287 286 286 287 288 289 290 290 290 290 290 289
282 283 283 284 284 284 285 285 285 286 286 287 287 286 286 285 285 286 286 285 285 285 286 286 287 288 288 287 287 288 289 290 290 290 290 290 290 291

GFSNE_850_thetae_057.txt.gz
Theta_e
305 305 300 299 298 296 296 294 293 291 291 292 291 291 289 289 288 288 287 286 286 286 286 286 288 289 290 290 291 291 292 292 293 293 294 294 295 296
301 302 299 297 296 296 296 294 292 290 289 289 289 289 288 288 287 286 286 286 285 285 285 285 287 288 289 289 290 290 290 291 292 292 293 294 295 295
300 303 298 301 295 294 293 292 291 290 288 288 288 288 287 287 287 286 286 286 285 285 285 285 287 288 288 289 289 289 290 290 291 292 292 292 293 294
304 300 299 296 295 294 291 290 289 288 288 287 287 287 286 286 286 286 285 285 284 285 286 286 286 287 287 287 288 289 289 289 289 290 290 291 291 292
299 303 302 295 293 291 290 289 288 287 287 287 287 286 286 286 286 285 284 284 284 285 286 286 286 286 286 287 287 288 288 288 288 288 288 289 290 290
299 300 297 294 290 289 288 287 287 287 287 286 286 287 286 286 285 285 284 283 284 286 286 285 286 286 286 286 286 286 286 286 286 286 287 288 289 289
292 292 290 289 289 288 287 286 287 287 286 286 287 286 286 285 285 284 283 284 284 285 286 285 285 286 286 286 286 286 286 286 286 287 288 288 288 289
289 290 289 288 287 286 285 285 285 286 287 286 286 286 285 285 284 283 284 284 284 284 285 284 285 286 286 286 286 286 286 285 286 286 287 287 288 288
289 289 287 286 285 285 284 284 285 285 286 286 285 285 284 284 284 284 285 284 283 284 284 285 285 285 286 286 286 286 286 286 285 286 286 287 287 288
287 286 285 285 284 283 284 285 285 285 285 285 284 284 284 284 285 284 284 283 283 284 285 284 285 285 285 285 286 286 286 286 286 285 286 287 287 287
286 285 284 283 283 284 285 285 285 285 284 283 283 284 284 284 283 283 284 283 284 284 284 284 285 284 285 285 285 286 286 286 285 285 285 285 285 286
284 283 283 283 283 285 286 285 284 283 283 283 284 284 284 284 284 284 284 283 283 281 283 283 283 282 282 283 283 285 286 286 286 286 285 285 285 285
283 283 284 283 284 284 283 283 282 283 283 283 284 284 285 285 285 285 285 284 284 284 285 282 282 281 280 282 283 284 285 286 286 286 286 286 286 285
283 283 283 283 282 282 281 281 282 283 284 284 284 285 285 285 286 286 285 285 285 284 285 284 283 283 282 282 282 284 285 285 286 286 286 286 286 285
283 283 282 281 281 281 282 283 284 284 284 284 285 285 285 285 286 285 285 285 285 285 285 285 284 284 283 282 283 284 285 286 286 286 286 286 286 286
282 282 281 281 281 282 284 284 284 284 284 284 285 285 286 286 286 285 285 285 284 285 285 285 285 284 284 284 284 284 286 283 286 286 285 286 287 288
282 281 281 281 283 284 284 284 284 285 285 285 285 286 286 286 286 285 285 285 284 285 285 285 285 285 285 284 284 286 286 286 286 286 285 286 287 287
281 281 281 283 283 284 284 284 285 285 285 285 286 286 286 286 286 286 285 285 285 285 285 285 285 285 285 286 284 285 286 285 286 286 285 284 285 288
280 281 282 283 283 284 284 284 285 285 285 286 286 286 286 285 285 286 285 285 285 285 285 286 285 284 283 283 286 285 285 285 286 286 286 286 286 289
280 282 283 283 283 284 284 285 285 285 286 286 286 286 286 285 285 285 285 285 285 285 285 286 286 286 284 284 284 288 287 286 286 287 288 288 288 289
281 282 283 283 284 284 284 285 285 285 286 286 286 286 286 285 285 285 285 285 285 285 285 286 287 287 287 287 285 287 289 289 289 288 289 288 289 290
282 283 283 284 284 284 285 285 285 286 286 286 286 286 286 286 286 286 285 285 285 285 285 286 287 287 287 286 286 287 289 290 290 290 290 290 289 288
282 283 284 284 284 285 285 285 286 286 286 286 286 286 286 286 286 286 286 285 285 285 286 287 287 287 288 287 287 288 289 290 290 289 290 289 289 290

GFSNE_850_thetae_060.txt.gz
Theta_e
311 309 304 305 306 299 299 297 296 295 295 295 293 293 291 290 289 288 287 287 287 286 286 286 286 288 289 290 291 291 292 292 293 293 293 294 295 296
306 302 303 299 300 300 297 298 298 293 291 292 292 290 289 289 288 287 287 286 286 286 285 285 286 288 288 289 290 291 291 292 292 292 293 294 294 295
301 301 298 298 298 300 299 295 294 293 291 290 289 289 288 288 287 287 286 286 286 286 285 285 286 287 288 289 289 290 290 291 291 291 292 293 293 294
300 298 300 303 301 297 296 294 291 290 289 288 288 287 287 287 286 286 286 286 285 285 285 286 286 286 287 287 288 289 289 289 289 290 290 291 292 292
299 302 301 301 299 296 294 292 289 288 288 287 287 287 286 286 286 286 285 285 284 284 286 286 286 286 286 286 287 288 287 288 288 288 289 289 289 290
300 300 302 301 296 293 288 288 287 287 287 286 286 286 286 286 285 285 284 284 284 285 286 286 286 286 286 286 286 286 286 286 286 287 287 288 288 289
300 300 299 291 288 288 287 286 286 285 285 285 286 286 286 285 285 284 283 284 285 285 286 286 286 286 287 287 286 286 286 287 287 287 288 288 288 288
296 289 288 287 287 286 285 285 285 285 285 286 286 286 285 285 284 283 284 284 284 284 284 285 285 286 286 286 286 286 286 286 286 286 287 288 287 288
289 288 287 286 286 286 285 285 284 285 285 285 285 285 284 283 283 284 284 284 283 284 284 284 285 286 286 286 286 286 286 286 286 286 286 287 287 287
288 287 286 286 285 284 284 285 285 285 285 285 284 283 283 284 284 284 283 283 283 284 284 285 285 285 285 285 285 286 286 286 286 286 286 287 287 287
286 286 284 284 284 284 285 285 285 285 283 283 283 283 284 284 284 284 284 284 284 284 285 283 285 284 284 285 284 284 285 285 285 285 285 285 285 286
285 284 283 283 284 285 285 284 283 282 282 284 285 285 285 285 285 285 284 284 284 283 283 283 283 281 282 282 283 284 285 285 286 286 286 286 285 285
283 283 284 283 284 283 283 282 281 283 283 284 284 285 285 285 286 286 285 285 284 284 285 282 282 282 281 282 284 285 285 285 286 286 286 286 286 285
283 283 283 282 282 281 281 282 282 283 284 284 284 285 285 286 286 286 286 285 285 285 285 284 283 283 283 283 283 285 285 285 286 286 287 287 286 285
283 282 282 282 281 281 283 284 284 284 284 285 285 285 286 286 286 286 286 286 286 286 285 285 284 284 283 283 283 285 285 286 287 287 286 286 286 286
282 281 281 281 281 283 284 284 284 284 284 285 285 285 286 286 286 286 286 286 286 287 286 286 285 284 284 285 284 285 287 284 287 286 286 286 286 287
281 281 281 281 283 284 284 284 285 285 285 285 285 286 286 286 286 286 286 285 285 285 286 287 286 286 286 285 285 287 286 286 286 286 285 286 287 287
280 281 281 283 284 284 284 285 285 285 285 285 286 286 286 286 286 286 285 285 285 285 286 286 286 286 286 285 285 285 286 285 286 286 286 284 286 288
280 281 282 283 284 284 284 284 285 285 285 286 286 286 286 286 285 286 286 285 285 285 285 286 285 285 283 283 286 285 285 286 286 286 287 287 287 290
280 281 283 283 284 284 284 285 285 285 285 286 286 285 285 284 286 286 286 286 286 285 286 286 286 285 284 285 285 289 288 286 287 287 288 289 289 289
281 282 283 283 284 284 285 285 285 285 286 286 286 286 285 284 285 286 286 286 286 286 286 286 286 287 287 287 286 288 290 290 289 289 289 289 289 289
282 283 284 284 284 285 285 285 285 286 286 286 286 285 285 285 285 285 285 285 286 286 286 286 286 286 287 286 287 288 290 290 289 290 290 289 289 289
283 284 284 285 285 285 285 285 286 286 286 286 286 285 285 285 285 285 286 286 286 286 286 286 286 286 287 288 288 289 290 290 290 290 291 289 289 289

GFSNE_850_thetae_063.txt.gz
Theta_e
321 318 314 306 305 306 305 297 298 297 299 299 297 296 293 291 291 290 289 289 288 287 287 287 287 287 289 289 290 291 292 292 293 294 294 295 295 296
318 313 306 302 300 299 298 299 298 301 301 299 294 293 292 291 290 288 288 287 287 287 286 286 286 287 288 289 290 291 291 292 292 293 294 294 295 295
309 304 300 299 299 297 298 300 303 301 301 299 295 290 290 289 288 288 287 287 287 286 286 286 285 287 288 289 289 290 290 291 291 291 292 293 293 294
300 298 298 299 299 301 301 301 303 297 293 290 289 289 288 287 287 286 287 286 286 286 285 285 286 286 286 287 288 289 289 289 290 290 290 291 292 292
298 299 300 300 301 301 300 298 295 289 288 287 287 287 287 286 286 286 286 286 285 285 286 286 286 286 286 286 287 287 288 288 288 288 288 289 290 290
301 301 302 301 300 299 296 291 289 288 287 286 286 285 286 286 286 285 285 284 284 286 287 287 287 286 287 286 286 287 287 287 287 286 287 288 289 289
301 300 300 300 295 289 288 287 286 286 285 285 286 286 286 286 285 284 284 284 284 286 286 286 287 286 287 287 287 287 287 286 286 286 287 288 289 289
300 299 295 288 287 286 285 285 284 284 286 286 286 285 285 285 284 284 284 284 284 286 285 285 286 287 287 286 286 286 286 286 286 286 287 287 288 288
291 288 287 286 286 285 285 284 284 284 285 285 285 285 284 283 284 284 284 284 284 286 285 284 286 286 286 286 286 286 287 286 286 286 286 287 288 288
287 286 286 285 285 285 284 285 285 285 285 284 283 283 283 284 284 284 284 284 284 286 284 283 286 285 285 285 286 286 286 286 286 286 286 286 287 287
286 285 285 285 284 285 286 285 285 284 283 282 283 284 284 285 285 284 285 284 285 286 285 283 285 284 285 286 285 285 285 285 285 285 285 285 285 286
284 284 284 284 284 285 285 284 283 282 283 285 286 286 285 285 285 285 285 285 285 284 284 283 284 283 282 283 284 285 285 286 286 286 286 286 285 284
284 284 283 283 283 282 282 282 282 284 285 285 285 286 286 286 286 286 286 286 285 285 286 283 283 284 281 283 285 285 285 286 286 287 287 287 286 285
283 283 282 282 282 282 282 283 284 285 285 285 285 285 286 286 286 286 286 286 285 285 286 285 284 285 283 283 284 286 286 287 287 288 287 287 286 286
282 282 282 282 282 282 284 284 285 285 285 285 285 285 286 286 286 287 287 286 287 286 286 286 285 285 284 284 284 286 286 287 287 287 286 286 286 286
282 281 281 281 282 284 284 284 284 285 285 285 285 286 286 286 287 287 286 286 286 287 286 286 286 285 285 286 284 286 287 284 286 286 286 286 287 287
281 281 281 282 284 284 284 285 285 285 285 285 286 286 286 286 287 287 286 286 286 286 287 287 286 286 286 285 286 286 286 286 286 286 286 287 288 288
281 281 281 283 284 284 285 285 285 285 285 285 286 286 286 286 286 286 285 286 286 286 286 286 286 286 285 285 285 285 286 286 287 287 287 286 289 289
280 281 282 284 284 284 285 285 285 285 285 285 286 286 285 285 284 285 285 285 285 286 286 286 285 285 284 284 286 286 286 288 288 288 289 289 289 290
281 282 283 284 284 285 285 285 285 286 285 286 286 286 285 283 284 285 285 285 285 285 285 286 286 285 285 285 285 289 289 288 289 289 289 290 289 289
281 283 283 284 285 285 285 286 286 286 286 286 286 285 285 284 285 285 285 286 285 286 285 286 286 286 286 286 285 288 290 290 290 290 290 290 290 289
283 284 284 285 285 285 286 286 286 286 286 286 286 286 285 285 285 285 285 285 286 286 286 286 286 286 286 286 286 287 289 290 291 291 291 291 290 289
283 284 284 285 285 285 286 286 286 286 286 286 286 286 285 285 286 285 286 286 286 286 286 286 286 286 286 286 286 287 289 290 290 291 292 291 291 290

GFSNE_850_thetae_066.txt.gz
Theta_e
326 325 320 320 318 314 310 307 303 303 304 300 297 298 297 296 296 297 296 291 290 290 289 288 288 288 288 288 290 291 292 292 293 294 295 296 296 297
324 323 316 315 312 309 309 303 300 298 298 300 301 302 301 297 297 293 289 289 288 288 288 287 287 287 287 288 289 290 291 292 292 294 294 295 295 296
320 316 316 313 305 303 298 298 300 300 301 301 300 300 299 291 289 288 288 287 287 287 287 286 286 285 287 288 289 289 290 291 292 292 293 293 294 294
317 313 311 301 298 298 300 301 302 302 300 300 300 294 290 288 288 287 287 287 286 287 286 285 286 287 287 287 287 288 289 290 290 291 291 292 292 293
305 302 298 297 299 302 302 302 300 300 298 292 288 288 287 287 286 287 286 287 286 286 286 287 288 287 287 287 287 288 287 287 288 289 289 289 290 291
297 297 299 301 302 301 300 300 297 290 288 287 287 288 287 287 287 287 287 286 286 287 287 288 288 288 288 288 288 288 287 287 287 287 287 288 289 289
300 301 301 301 299 300 294 289 287 286 286 286 288 288 288 288 287 287 286 286 286 287 287 287 287 287 287 287 288 288 287 287 287 287 287 288 289 289
301 301 300 299 289 287 287 286 286 285 287 287 287 288 288 287 286 286 286 285 285 287 286 286 286 287 288 287 287 287 287 287 286 286 287 287 288 289
300 297 290 287 286 286 286 285 284 284 285 286 287 287 286 285 285 285 285 285 285 286 286 285 286 286 286 286 287 287 287 287 286 286 286 287 288 288
289 288 287 286 285 285 285 285 286 286 285 284 284 285 285 285 285 285 285 285 285 286 286 285 286 285 285 286 287 287 287 287 286 286 286 286 287 287
286 286 286 285 284 285 286 286 285 284 283 283 283 285 285 285 285 285 285 285 285 286 286 285 286 285 285 287 287 287 287 287 287 286 286 286 286 286
285 285 284 284 284 285 284 284 283 283 284 285 285 286 286 286 286 286 286 286 285 285 286 285 285 284 284 286 286 286 287 287 287 287 287 287 287 285
284 284 283 283 283 282 282 282 283 284 285 286 286 286 286 286 286 286 286 286 286 286 287 283 284 285 283 284 286 287 287 287 286 287 287 288 287 287
283 283 283 282 282 282 282 283 284 285 286 286 286 286 286 286 287 287 287 287 286 286 287 285 284 285 284 285 284 287 287 287 287 288 287 287 286 286
282 282 282 282 282 282 284 285 285 285 286 286 286 286 287 287 287 287 287 287 287 287 287 286 286 285 285 285 285 287 287 287 287 287 287 286 286 287
282 281 281 282 282 284 285 285 285 285 285 286 286 286 287 287 287 287 287 287 287 287 287 286 286 286 286 286 285 286 287 284 287 287 286 287 287 288
281 281 281 282 284 285 285 285 285 285 285 286 286 286 286 286 286 286 286 286 285 286 287 287 286 285 285 286 286 286 286 286 287 287 287 287 289 289
281 281 282 283 284 285 285 285 285 285 285 286 286 286 286 286 286 285 285 285 285 286 286 286 286 285 285 285 286 286 286 286 287 287 287 287 289 290
281 281 283 284 284 284 285 285 286 286 285 286 286 286 286 286 285 285 285 284 284 285 285 285 285 285 285 286 286 286 286 287 288 289 289 289 289 291
281 282 284 284 285 285 285 286 286 286 285 285 286 286 286 285 284 284 285 285 285 284 285 285 285 285 286 285 286 287 287 287 288 288 289 290 291 291
281 283 284 284 285 285 286 286 286 286 286 286 286 286 286 285 284 284 284 285 284 285 284 285 285 285 285 286 286 286 287 288 288 288 289 289 290 290
282 284 284 285 285 285 286 286 286 286 286 286 286 286 286 285 285 284 284 285 285 286 285 286 286 286 286 286 286 286 286 288 289 289 290 290 290 289
283 284 284 285 285 286 286 286 286 286 286 285 285 285 285 285 285 285 286 285 286 286 286 285 286 286 286 287 286 286 286 287 288 288 290 290 290 290

GFSNE_850_thetae_069.txt.gz
Theta_e
324 322 323 323 321 319 319 316 307 306 305 305 303 300 300 301 300 300 302 302 301 301 294 290 290 289 289 289 289 289 290 292 293 294 294 295 296 297
321 321 321 320 319 315 310 314 312 306 302 302 302 300 301 302 301 300 301 300 296 290 289 289 289 288 288 287 287 289 291 292 292 293 294 295 295 296
318 318 317 317 317 311 308 305 306 303 303 300 301 302 302 301 300 300 294 290 288 288 288 287 288 287 286 287 289 290 290 291 291 292 293 293 294 295
316 315 314 312 308 307 305 300 300 301 301 302 302 301 300 300 293 290 289 288 288 287 288 287 287 288 288 288 288 288 289 289 290 291 291 292 292 293
311 309 308 305 304 297 299 300 302 302 301 300 298 295 290 288 288 288 287 287 288 288 287 287 288 288 288 289 289 288 288 288 289 289 289 289 290 290
304 300 299 299 299 300 301 302 300 299 298 293 289 288 288 288 288 288 288 288 287 287 287 288 288 289 288 288 288 288 288 288 287 288 288 288 289 289
298 296 298 300 301 301 300 300 296 289 288 287 287 288 289 288 288 288 287 286 286 287 288 288 288 288 288 288 288 287 287 288 288 288 288 289 289 289
299 299 299 299 299 299 292 289 288 287 286 286 287 287 288 288 288 287 286 285 286 288 287 288 287 287 288 288 288 288 287 287 287 287 287 288 288 288
298 297 296 291 289 288 287 286 286 285 285 285 286 287 287 287 286 285 285 285 286 287 286 287 288 287 288 288 288 288 288 287 287 287 287 287 287 288
293 291 288 286 286 286 286 286 286 286 286 286 285 284 284 285 286 286 286 286 286 287 286 286 288 287 288 288 288 288 288 288 288 288 287 287 287 287
286 285 286 286 285 285 285 286 286 286 285 284 284 285 286 286 286 286 286 285 286 287 287 287 287 286 288 289 289 289 288 288 288 288 288 288 287 287
285 285 285 284 284 284 284 284 284 283 283 285 286 286 286 286 286 286 286 286 286 286 286 286 286 285 284 288 287 287 288 288 288 287 288 287 286 286
284 284 284 284 284 284 284 283 283 283 285 286 286 286 286 286 286 286 286 286 286 286 287 284 285 286 284 285 287 287 287 288 288 288 288 288 287 286
283 283 283 283 283 283 282 283 284 286 286 286 286 286 286 286 286 287 287 286 287 287 287 286 285 286 285 285 285 287 287 288 288 287 287 287 287 287
283 282 282 282 282 282 283 285 285 286 286 286 286 286 286 287 287 287 287 287 287 287 287 286 285 285 285 285 284 286 287 287 288 287 287 287 288 288
282 282 282 282 282 283 285 285 286 286 286 286 286 287 287 287 287 287 287 287 286 287 287 286 286 284 283 284 284 285 286 285 287 287 287 287 287 288
281 281 281 282 283 284 285 285 286 286 286 286 286 286 287 287 287 286 286 285 284 285 286 286 286 284 284 284 286 286 286 286 286 286 286 286 288 289
281 281 281 282 284 284 285 285 286 286 286 286 286 286 286 286 286 286 285 284 284 284 284 285 284 285 285 285 286 286 286 286 286 286 286 287 288 290
281 281 282 283 284 285 285 286 286 286 286 286 286 286 286 286 286 285 285 283 283 283 285 284 285 285 285 286 286 286 286 286 286 287 287 287 287 290
281 281 282 284 284 285 286 286 286 286 286 286 286 286 286 285 285 284 284 284 283 284 284 284 285 285 285 286 286 286 286 287 287 287 287 287 287 289
281 282 283 284 285 285 285 286 286 286 286 286 286 286 286 285 285 285 285 285 284 284 284 284 286 286 286 286 286 286 287 287 287 287 287 286 287 289
281 282 284 284 284 285 285 286 286 286 286 286 285 285 285 284 284 285 285 285 285 285 284 285 286 286 286 286 286 287 286 287 287 287 288 288 288 288
282 282 284 284 284 285 285 285 286 286 285 285 285 285 285 285 284 284 285 285 285 285 285 286 286 286 286 286 287 286 286 286 286 287 288 288 289 289

GFSNE_850_thetae_072.txt.gz
Theta_e
324 324 323 322 321 321 320 319 315 310 307 303 306 306 306 309 307 301 299 299 301 301 301 300 294 291 290 290 289 289 290 290 292 294 294 295 296 297
321 320 320 320 319 319 317 315 310 308 308 307 307 305 305 306 301 300 300 301 301 300 295 291 291 289 289 288 288 288 290 291 292 293 294 295 296 296
316 317 317 317 316 315 312 310 309 308 306 305 305 305 302 300 300 299 299 299 297 294 291 288 288 288 288 288 289 290 290 291 291 292 293 294 294 295
314 314 314 313 310 308 307 307 305 306 305 302 302 300 300 299 299 298 293 289 288 288 288 288 289 288 289 289 289 289 290 290 290 292 292 292 292 293
312 311 309 308 306 304 301 300 301 301 302 301 300 299 297 291 289 288 288 288 288 288 287 287 288 289 289 289 289 289 289 290 290 290 290 290 290 291
305 303 302 301 299 299 300 300 300 301 300 298 294 290 288 288 288 288 288 288 287 287 288 288 289 289 289 288 288 288 288 288 289 289 289 289 289 290
300 298 298 298 299 299 299 298 295 293 292 288 287 288 288 287 288 288 288 287 287 287 289 289 288 289 289 289 288 288 288 288 288 289 289 289 289 290
297 298 299 297 297 299 296 290 287 287 287 287 286 286 287 288 288 287 286 285 288 288 288 290 289 289 289 289 289 288 288 288 288 289 289 288 288 288
298 297 298 299 297 292 286 286 286 285 286 286 286 286 286 286 285 285 286 287 287 288 286 290 289 289 289 289 289 288 288 288 288 288 288 288 288 288
297 293 289 287 286 285 286 286 287 286 286 286 285 284 284 284 285 286 286 287 288 288 287 288 289 289 289 289 289 289 288 288 288 287 287 288 288 289
287 286 286 286 286 285 285 286 286 285 285 284 284 285 286 286 286 287 287 286 288 289 288 287 287 287 289 290 289 289 288 288 288 288 288 287 288 288
286 286 285 284 284 284 284 284 284 284 284 284 286 286 287 287 287 287 287 287 287 287 287 287 287 285 285 289 288 288 288 288 288 288 288 288 286 287
284 284 284 284 283 283 283 283 283 283 284 286 287 287 287 287 287 287 287 287 286 286 287 284 284 285 283 284 287 288 288 288 288 288 288 287 287 287
284 283 283 283 282 282 282 283 284 286 286 286 286 286 286 287 287 287 287 287 287 287 287 285 283 283 282 283 283 287 287 287 288 288 287 287 288 288
283 283 282 282 282 283 283 285 286 286 286 286 286 286 287 287 287 287 287 287 287 287 286 286 284 283 283 283 283 283 285 287 287 287 287 287 288 288
282 282 282 282 282 283 285 285 286 286 286 286 287 287 287 287 287 287 287 287 286 287 286 285 284 283 284 284 284 285 286 284 286 286 286 287 288 288
282 282 282 282 283 284 285 285 286 286 286 286 287 287 287 287 287 287 286 286 286 285 286 285 285 283 284 285 285 286 285 285 286 286 286 286 286 287
282 282 282 282 283 285 285 285 285 286 286 287 287 287 287 287 287 287 286 286 285 285 284 285 284 284 285 285 285 285 285 285 286 286 286 286 287 288
282 281 281 282 284 285 285 286 286 286 286 287 287 287 287 286 286 286 286 285 285 284 284 283 284 284 284 284 285 285 285 286 286 286 286 287 287 288
281 281 281 282 284 285 285 286 286 286 287 287 287 287 287 286 285 285 285 285 285 283 283 285 284 285 284 284 285 286 286 286 286 286 286 287 287 287
281 281 282 283 284 285 285 286 286 286 286 286 286 285 285 284 284 285 284 284 283 284 284 285 285 285 285 285 285 286 286 286 286 286 286 286 287 287
282 282 282 283 284 285 285 285 286 286 286 286 285 285 284 284 284 284 284 284 284 284 284 285 285 285 285 285 285 286 286 286 286 287 287 287 287 287
282 282 282 283 284 284 284 285 285 285 285 285 284 284 284 284 284 284 284 285 285 284 284 285 285 285 285 286 286 286 286 286 286 287 288 288 289 289

GFSNE_850_thetae_075.txt.gz
Theta_e
322 322 323 323 324 324 322 318 318 314 313 312 308 305 307 306 307 305 304 302 301 301 299 299 299 299 293 292 291 291 292 291 292 294 294 295 296 297
318 318 318 320 321 320 319 318 315 312 310 310 309 306 305 306 303 302 302 300 300 300 300 299 294 291 291 289 290 290 290 292 293 293 294 296 296 296
314 314 314 315 315 316 316 315 311 309 308 308 306 306 305 305 303 301 301 299 300 299 296 292 289 288 289 289 290 291 291 291 292 293 293 294 295 294
311 312 312 312 313 312 311 310 308 306 305 305 304 303 302 301 301 300 299 297 291 288 288 288 288 287 287 289 290 290 290 291 291 291 292 292 292 293
311 311 310 309 307 305 304 302 302 302 302 301 301 300 300 299 295 290 289 288 288 289 288 287 287 288 288 289 290 290 289 289 289 289 290 290 291 291
309 308 306 304 303 300 300 300 300 300 300 300 298 296 293 289 289 289 288 288 288 286 287 288 289 289 289 289 288 288 288 288 288 288 289 290 290 291
304 303 302 301 300 299 299 298 298 298 298 293 289 288 288 288 288 288 288 287 286 288 289 289 289 289 289 289 289 289 289 288 289 289 289 290 290 290
299 299 300 299 299 298 298 298 298 290 287 287 287 286 287 287 288 287 286 285 287 288 290 290 289 290 289 289 289 289 288 288 288 289 289 290 290 290
298 298 298 297 297 295 289 286 285 286 286 286 286 286 286 286 286 285 285 287 287 287 288 290 289 290 290 290 289 289 289 288 288 288 288 289 289 289
296 293 290 288 286 286 286 286 287 287 286 286 285 285 284 284 284 286 287 287 288 287 287 289 289 290 290 290 289 289 288 288 288 287 287 287 288 288
287 287 286 286 286 285 285 285 285 285 285 285 283 284 285 286 286 286 287 287 288 288 288 288 288 289 290 290 289 289 288 288 287 288 287 288 287 287
286 285 284 284 284 284 283 283 284 284 284 283 285 286 286 286 286 287 287 287 287 288 287 287 287 285 287 289 290 290 289 288 288 288 288 288 288 288
284 284 284 284 283 283 283 283 283 283 283 285 286 286 286 286 287 287 287 287 287 287 287 285 286 285 282 284 289 289 288 288 288 288 288 287 287 287
284 283 283 283 283 283 283 283 283 285 286 286 286 286 286 287 287 287 287 287 287 288 287 286 284 283 283 284 284 288 288 287 287 287 287 287 287 287
283 283 283 282 282 283 283 284 285 285 285 286 286 286 287 287 287 288 288 288 288 288 286 286 284 283 283 283 284 286 286 286 286 286 286 286 287 287
283 282 282 282 282 283 284 285 285 285 286 286 286 287 287 287 287 288 288 288 288 288 287 286 285 283 283 284 284 286 286 284 285 286 286 286 287 287
283 282 282 282 282 283 285 285 285 286 286 286 286 286 287 287 287 287 287 287 287 287 287 286 286 284 283 284 285 286 285 285 285 285 286 286 286 286
283 282 282 282 282 284 285 285 285 286 286 287 287 287 287 287 287 287 286 286 286 286 286 286 284 284 284 285 285 285 285 285 285 286 286 286 286 287
283 282 282 282 283 284 285 286 286 286 287 287 287 287 286 286 286 286 285 285 285 285 285 285 284 283 283 283 285 284 285 285 285 286 286 286 286 287
283 282 282 282 283 285 285 286 286 286 286 286 286 286 286 286 285 285 285 284 285 285 284 285 285 284 283 283 284 286 285 285 286 286 286 286 286 287
283 282 282 282 283 284 285 285 285 286 286 286 286 286 285 284 284 284 284 284 284 284 284 285 285 285 285 285 284 284 285 285 286 286 286 286 286 287
283 283 282 282 282 283 284 284 285 285 285 285 285 285 285 284 284 284 284 284 284 284 284 285 285 285 285 285 284 284 285 286 286 286 286 286 286 286
283 283 282 282 282 282 283 283 284 284 285 285 285 285 284 284 284 284 284 284 284 284 284 284 285 285 285 285 284 285 285 285 285 286 287 287 287 287

GFSNE_850_thetae_078.txt.gz
Theta_e
320 320 320 320 320 321 322 321 319 316 315 315 313 312 310 304 302 304 303 303 302 302 301 300 301 298 298 296 295 294 294 294 294 294 295 295 296 297
316 313 317 316 316 315 316 318 318 315 313 312 311 309 304 305 304 304 302 302 301 300 299 300 298 297 294 293 292 291 291 292 293 294 295 296 296 297
311 310 312 312 313 312 313 313 313 312 310 310 308 307 304 304 302 301 301 301 300 299 298 298 294 291 289 290 291 291 291 292 292 293 294 294 294 295
310 310 310 310 310 311 311 311 309 308 306 305 304 303 303 302 301 300 299 297 297 294 289 288 288 288 288 288 288 289 290 291 291 292 292 292 292 293
310 310 310 310 310 309 309 308 307 305 304 302 302 301 301 300 299 299 297 290 289 288 288 288 287 287 289 289 289 290 290 289 289 289 289 290 291 291
309 309 308 308 306 305 303 302 302 301 302 302 301 300 299 297 291 289 289 288 288 288 287 287 289 289 289 289 289 289 289 289 289 289 289 290 290 290
306 305 304 303 302 301 301 301 301 301 300 299 299 295 289 288 288 288 288 288 287 287 288 289 289 289 289 289 289 289 289 289 289 289 289 290 290 291
301 301 300 300 300 298 299 299 298 298 295 291 288 287 287 287 287 287 287 286 287 288 289 290 289 290 290 289 289 289 289 289 289 289 289 289 290 290
300 299 299 297 298 297 294 291 288 287 286 286 286 286 286 286 286 285 285 286 287 288 289 290 290 290 290 289 289 289 289 289 288 288 288 288 288 289
295 293 290 288 288 288 287 287 287 287 286 286 286 286 285 285 284 285 286 287 287 288 289 289 290 290 290 289 289 289 289 288 288 288 288 288 288 288
288 287 287 286 286 286 285 285 285 285 285 285 284 284 284 285 286 287 287 287 288 287 288 288 289 289 290 290 289 289 288 288 288 288 288 288 288 288
286 286 285 285 285 284 284 284 284 284 284 284 283 285 286 286 286 286 287 287 287 287 287 287 287 286 288 290 290 290 289 288 288 287 287 287 288 288
285 285 284 284 284 283 283 283 283 283 283 284 285 286 286 286 286 287 287 287 287 287 287 285 287 285 283 286 289 289 289 289 288 287 287 287 287 286
284 284 284 283 283 283 283 282 283 283 285 285 286 286 286 286 286 287 287 287 287 287 287 285 286 286 284 285 287 288 288 288 287 286 286 286 286 286
284 283 283 283 283 282 283 283 284 285 285 286 286 286 286 287 287 287 287 287 287 287 286 285 285 286 285 285 286 287 286 287 287 286 286 286 286 287
284 283 283 283 283 283 283 284 285 285 286 286 286 286 287 287 287 287 287 287 287 288 286 285 285 285 285 285 284 286 286 285 285 285 285 286 286 287
283 283 283 283 283 283 283 285 285 285 286 286 286 287 287 287 287 287 287 287 287 288 288 287 286 285 285 284 285 286 286 285 285 285 285 286 286 286
284 283 283 282 282 282 284 285 285 285 286 286 287 287 287 287 287 287 286 285 286 286 286 286 286 286 286 286 285 286 285 285 285 285 285 285 286 286
284 283 283 282 282 282 284 285 285 286 286 286 286 287 287 287 286 286 285 285 285 285 285 285 285 284 282 283 286 286 285 285 285 285 285 286 286 286
284 283 282 282 282 283 284 285 285 286 286 286 286 286 286 286 286 285 285 284 285 285 285 285 285 284 283 283 282 286 286 285 285 285 285 285 285 286
284 284 283 283 282 283 283 284 285 285 285 286 286 286 285 285 285 284 284 284 284 284 284 285 285 285 284 284 284 286 286 286 285 285 285 284 285 286
284 284 283 283 283 283 283 283 284 284 285 285 285 285 285 284 284 284 284 284 284 284 284 285 285 285 284 284 284 285 286 286 286 286 285 285 285 285
284 283 283 283 282 282 282 282 282 283 284 284 284 284 284 285 284 284 283 284 283 284 284 284 284 284 284 284 284 284 284 284 284 285 285 285 285 285

GFSNE_850_thetae_081.txt.gz
Theta_e
320 316 318 318 318 319 319 317 316 316 315 314 314 314 313 312 310 308 305 300 303 300 300 300 299 300 300 299 299 298 298 296 295 295 295 296 297 297
313 314 315 317 315 316 313 314 313 314 313 312 312 311 310 308 306 305 302 301 300 299 300 299 299 298 299 299 296 294 293 293 293 294 295 296 296 296
311 311 311 310 311 310 310 311 311 311 312 311 310 308 307 305 303 301 300 300 301 300 299 299 298 299 298 292 291 290 290 292 293 293 293 294 295 295
310 310 310 309 310 310 310 310 310 310 310 309 308 307 305 303 302 301 301 299 300 300 300 298 295 289 289 288 288 288 290 292 292 291 291 292 292 293
309 309 309 309 309 309 307 306 306 307 306 305 304 303 302 301 300 299 298 298 297 293 289 289 289 288 287 287 288 289 290 290 289 289 290 290 290 290
309 308 307 307 306 304 304 303 303 303 303 302 302 301 300 298 298 297 292 290 289 289 288 288 287 288 289 289 290 289 289 290 290 290 290 290 290 291
306 305 304 303 301 301 301 301 300 301 300 300 300 299 297 292 289 289 288 288 288 287 287 288 289 289 290 290 289 290 290 289 289 289 289 290 290 291
302 302 302 301 300 299 299 299 298 298 298 297 294 289 288 288 287 287 287 287 286 287 288 289 288 289 289 289 289 290 290 290 290 290 289 289 289 290
300 300 299 299 297 296 294 291 289 288 287 287 287 287 286 286 286 286 285 285 286 287 288 290 289 289 289 289 289 290 289 289 289 290 289 289 289 289
291 290 289 288 288 287 287 287 287 287 286 286 286 286 286 285 285 284 284 286 287 288 288 289 290 290 290 289 290 290 289 289 289 289 289 289 289 289
288 288 287 287 286 286 285 285 285 285 285 285 285 284 284 284 286 286 287 287 287 288 288 288 289 289 290 290 290 289 289 288 288 288 287 288 288 288
287 287 286 285 285 284 284 284 284 284 284 284 284 284 285 286 286 286 286 286 286 287 288 288 288 288 288 289 289 288 288 288 288 288 288 288 287 287
286 286 285 285 284 284 284 284 284 284 284 284 284 285 286 286 286 286 286 287 287 287 287 286 287 287 286 287 290 290 289 288 288 288 287 286 286 286
286 285 285 284 284 284 283 283 283 284 284 285 286 286 286 286 286 287 287 287 287 287 287 286 286 286 285 286 287 290 290 289 288 288 287 286 286 286
285 285 284 284 284 284 283 283 284 285 285 286 286 286 286 286 287 287 287 287 287 287 287 286 286 285 285 285 285 288 287 288 288 287 286 286 286 286
285 284 284 284 283 283 283 283 284 285 285 286 286 286 287 287 287 287 287 287 288 288 287 286 285 285 285 286 285 287 287 285 287 286 285 285 286 286
285 285 284 284 284 283 283 284 285 285 285 286 286 287 287 287 287 287 287 287 287 287 288 286 285 284 285 285 286 287 286 286 286 285 285 285 286 286
285 285 284 284 283 283 283 283 285 285 286 286 286 287 287 287 287 287 286 286 286 286 286 286 285 285 286 287 286 286 286 286 286 286 285 285 285 286
285 285 284 283 283 283 283 283 285 285 286 286 286 287 287 287 286 286 285 285 285 285 285 285 285 284 284 285 286 285 285 285 285 286 286 286 285 286
285 285 284 284 284 283 283 283 284 285 285 285 286 286 286 286 286 286 285 285 285 285 285 285 285 284 284 284 284 287 286 285 285 285 286 286 286 285
285 285 285 285 284 284 283 283 283 284 284 285 285 285 285 285 285 285 284 284 284 283 284 285 285 284 284 283 282 286 286 285 285 284 285 285 285 284
285 285 285 285 284 283 283 283 283 283 283 283 284 284 284 284 284 284 284 284 284 284 284 284 284 284 284 284 284 284 285 286 285 285 285 285 284 285
285 285 285 284 284 283 283 283 282 282 282 282 282 282 283 283 283 284 284 284 284 284 284 284 284 284 284 284 284 284 284 284 284 285 286 285 285 285

GFSNE_850_thetae_084.txt.gz
Theta_e
322 321 319 319 316 316 317 316 316 315 314 314 313 312 312 311 311 311 310 307 304 303 303 302 301 301 300 300 301 301 300 300 299 298 296 296 297 298
319 317 315 313 314 315 315 313 313 312 312 311 311 310 310 310 310 310 308 305 303 301 300 300 300 300 299 299 299 299 299 296 295 294 295 296 297 297
315 312 310 311 311 310 310 309 310 310 310 310 309 309 309 307 308 307 305 304 303 301 300 300 299 298 298 298 296 294 291 290 292 293 294 294 295 296
309 309 309 309 309 309 309 309 309 309 309 308 307 306 305 305 305 305 305 302 301 301 300 300 300 299 296 290 289 288 288 288 291 291 291 291 292 293
309 309 309 309 308 308 307 306 305 307 306 305 304 304 303 302 302 302 302 301 300 300 298 292 289 288 288 287 287 288 289 290 290 290 290 290 290 290
308 308 307 307 307 307 305 304 304 303 302 301 302 302 301 300 300 299 298 296 292 290 289 289 288 287 287 288 289 289 290 290 290 290 289 289 290 291
307 305 305 307 306 303 302 301 301 300 300 300 300 299 299 297 294 291 289 288 288 288 288 287 287 288 289 289 289 290 290 290 290 290 290 290 290 290
304 304 304 303 301 300 299 299 298 298 298 298 296 294 290 288 288 287 287 287 287 286 287 288 288 289 289 289 290 290 290 290 290 290 290 290 290 289
302 302 301 298 295 293 290 288 288 288 288 288 287 287 287 286 286 286 286 285 285 286 288 289 289 289 289 289 290 290 290 289 289 289 290 290 289 289
291 290 289 288 288 288 287 287 287 286 286 286 286 286 286 285 285 285 285 284 286 287 288 289 289 290 289 289 290 289 289 289 289 289 289 289 289 288
289 288 287 287 287 286 286 286 285 285 285 285 285 284 284 284 285 286 287 287 287 288 288 288 289 290 290 289 289 289 289 289 288 289 289 288 288 289
288 287 287 286 286 285 285 285 285 285 284 284 284 284 284 285 286 286 286 286 287 287 288 287 288 289 289 289 289 288 288 288 288 288 288 288 288 287
287 287 287 286 285 285 285 285 285 284 284 284 284 285 286 286 286 286 286 287 287 287 287 287 288 288 288 289 289 289 289 289 289 288 287 287 286 286
287 287 287 286 285 285 285 285 285 284 285 285 286 286 286 286 286 286 286 287 287 287 287 287 287 287 287 287 288 289 289 289 289 288 287 286 286 286
287 286 286 286 285 285 285 284 284 284 285 286 286 286 287 287 287 287 287 287 287 287 287 287 286 286 286 286 287 289 289 290 288 287 286 286 286 286
287 286 286 286 285 285 285 284 284 285 285 286 286 286 287 287 287 287 288 288 288 287 286 286 286 286 286 287 286 288 287 286 288 287 286 287 287 287
287 286 286 286 285 285 284 284 284 284 285 286 286 286 287 287 287 287 287 287 288 288 287 286 285 285 285 285 286 287 286 286 286 286 286 287 288 287
287 286 286 286 285 285 284 284 284 284 285 286 286 286 286 286 286 287 286 286 287 287 286 286 286 285 285 286 286 287 286 286 286 286 286 285 287 288
287 287 286 286 286 285 284 284 283 283 284 285 286 286 286 286 286 286 286 285 286 286 286 285 285 284 284 284 286 285 286 285 285 286 285 285 286 288
287 286 286 286 286 285 285 284 284 283 284 284 284 285 285 285 286 286 285 285 285 286 286 285 285 284 283 283 284 286 285 285 285 285 286 286 286 287
286 286 286 286 285 285 285 284 284 284 283 283 283 283 283 284 284 285 284 284 284 284 285 285 284 283 283 283 284 286 286 285 284 284 284 284 285 286
286 286 286 286 286 285 285 284 284 283 283 282 282 282 282 282 282 283 283 284 284 284 284 285 284 283 283 283 284 284 286 286 285 285 285 284 284 284
286 286 286 286 286 285 285 284 284 283 283 282 282 281 281 281 281 281 282 282 283 284 284 284 284 283 283 283 283 284 285 285 285 285 287 285 285 284

GFSNE_850_thetae_087.txt.gz
Theta_e
324 322 321 321 320 319 317 316 314 314 312 313 312 311 311 310 310 310 310 310 310 309 307 306 305 305 304 303 302 302 302 302 302 301 300 298 297 299
321 321 321 318 317 313 314 314 315 313 312 311 310 310 309 309 309 309 308 306 306 304 303 303 303 302 301 301 301 301 301 300 299 298 296 296 297 297
321 320 315 314 311 311 311 310 310 309 309 309 308 308 308 308 308 307 305 304 304 304 302 301 301 300 299 299 300 300 300 295 290 292 294 295 296 296
319 315 310 309 309 309 309 309 309 309 309 308 306 305 305 305 305 304 303 303 302 302 302 301 300 300 300 299 294 290 289 288 288 291 292 292 291 292
309 309 309 309 309 309 308 308 306 306 307 306 305 304 304 303 303 302 302 302 302 301 300 299 294 290 289 289 288 288 288 289 290 290 290 290 290 290
309 309 309 308 308 307 306 305 305 304 304 303 302 302 302 302 301 300 300 299 298 295 292 290 289 288 288 287 288 289 290 290 290 290 290 290 290 291
308 308 307 306 306 304 303 304 303 303 302 301 300 299 299 298 296 294 291 290 289 288 288 288 287 287 288 288 290 290 290 290 290 290 290 290 290 290
306 305 304 304 302 301 302 302 301 298 297 296 295 293 291 289 288 288 287 287 287 287 287 287 288 289 289 289 290 290 290 290 290 290 289 289 290 290
303 303 302 301 299 294 291 290 289 289 289 288 288 288 287 287 287 287 286 286 285 285 287 288 289 289 289 290 290 290 290 289 289 289 289 290 290 290
298 294 291 290 290 289 289 288 288 287 287 287 286 286 286 286 286 285 285 285 286 287 288 289 289 289 289 290 290 290 290 289 290 290 290 290 290 290
290 289 289 289 288 288 288 287 287 286 286 286 285 285 285 285 285 286 287 287 287 288 288 289 289 290 290 290 290 289 290 289 289 289 289 289 289 289
289 288 288 288 287 287 287 286 286 285 285 285 285 285 285 285 286 287 287 287 287 287 288 288 289 289 289 289 289 289 288 289 289 289 289 290 290 289
288 288 288 287 287 286 286 286 285 285 285 285 285 286 286 287 287 287 287 287 287 287 286 287 288 288 287 288 289 288 288 288 288 289 289 289 288 288
288 287 287 287 286 286 286 286 285 285 285 286 286 287 287 287 287 287 287 287 287 287 287 287 287 287 286 287 288 289 289 289 289 289 288 287 287 287
287 287 287 287 286 285 286 285 285 285 285 286 287 287 287 287 287 287 288 288 288 287 287 287 287 286 287 287 288 289 289 289 288 288 287 287 287 287
287 287 287 286 286 286 286 286 285 285 286 286 287 287 287 287 287 287 288 288 288 287 287 287 287 286 287 287 286 288 287 287 288 287 286 287 287 287
287 287 287 286 286 286 286 285 285 285 285 286 286 287 287 287 287 287 287 288 288 288 287 286 286 286 286 286 287 287 287 287 287 286 286 287 288 287
287 287 287 286 286 286 286 286 285 285 284 285 286 286 286 286 286 287 287 287 287 287 287 286 286 286 286 287 286 287 287 287 286 286 285 286 288 288
287 287 287 287 286 286 286 285 285 285 285 284 285 285 285 285 286 286 286 286 286 286 286 285 285 284 284 285 285 286 287 286 285 286 285 285 286 288
287 287 287 287 286 286 286 286 285 285 285 284 284 284 283 283 284 284 285 285 285 285 286 285 284 284 283 283 284 286 285 285 285 285 286 285 286 287
287 287 287 287 286 286 286 286 285 285 284 284 283 283 282 282 282 282 283 284 284 284 285 285 284 283 283 283 284 285 285 285 285 284 284 284 285 286
287 287 287 287 287 286 286 286 285 285 284 284 283 283 282 282 282 281 281 282 282 283 283 284 284 284 283 283 284 284 286 285 285 285 285 284 284 284
287 287 287 286 286 286 286 286 286 285 284 284 283 283 282 282 281 281 281 281 281 281 281 283 283 284 284 283 283 284 284 285 285 285 286 285 285 285

GFSNE_850_thetae_090.txt.gz
Theta_e
327 325 325 323 322 321 321 321 319 317 315 313 312 313 312 310 310 309 310 309 310 310 309 309 309 308 307 308 306 305 304 303 303 303 302 301 300 300
326 325 322 321 321 320 318 315 314 314 314 312 311 311 310 309 309 309 308 308 308 307 306 305 305 305 305 305 304 303 302 302 302 301 301 298 297 297
326 323 321 320 319 315 313 311 311 311 310 309 308 308 308 308 308 307 307 306 305 305 305 304 304 304 303 303 303 302 301 300 298 292 290 294 296 296
320 320 319 318 313 310 309 309 309 309 309 308 307 307 306 306 306 305 305 305 304 305 304 304 303 303 302 301 301 298 292 290 289 288 289 293 294 294
319 318 315 310 309 309 309 308 308 307 307 307 307 306 306 305 304 304 304 303 302 302 301 301 300 299 294 291 289 289 288 288 289 290 291 290 290 290
310 309 309 308 308 308 307 307 306 306 305 305 304 304 303 302 302 302 301 301 299 298 295 292 289 289 288 288 287 288 289 290 290 290 290 290 290 290
308 308 308 307 307 306 306 305 305 304 303 303 302 301 300 300 299 298 295 293 290 289 289 288 288 287 288 289 289 290 290 290 290 290 290 290 290 290
307 307 306 306 306 305 305 304 303 302 300 299 297 296 294 292 290 289 288 288 288 288 287 287 287 288 289 290 290 290 290 290 290 290 290 290 290 290
305 305 304 304 303 302 297 293 291 290 290 289 289 288 288 288 288 287 287 286 286 286 287 288 289 289 290 290 290 290 290 290 290 290 289 290 290 290
303 302 301 296 292 290 289 289 289 289 288 288 288 287 287 287 286 286 286 286 286 288 288 289 289 289 290 290 290 290 290 290 289 289 289 289 289 289
296 291 290 290 289 288 288 288 288 288 287 287 287 287 286 286 286 286 288 288 288 288 289 289 289 289 290 290 290 290 289 290 289 289 289 290 290 290
290 289 289 289 288 288 288 287 287 287 287 287 287 286 286 286 287 288 287 288 288 288 289 289 289 289 289 289 289 289 289 289 289 289 289 289 290 290
289 289 289 288 288 287 287 287 287 286 286 286 286 286 287 287 287 287 287 287 287 287 288 288 288 288 288 288 289 289 289 289 288 288 289 290 290 290
288 288 288 288 287 287 287 287 286 286 286 286 286 287 287 287 287 288 288 288 288 288 288 288 288 288 287 288 288 289 289 289 289 289 289 288 288 288
288 288 288 287 287 287 287 286 286 286 286 286 287 287 287 287 288 288 288 288 288 288 288 288 288 287 287 287 288 288 288 289 288 288 288 288 288 288
287 287 287 287 287 287 286 286 286 286 286 286 286 287 287 287 288 288 288 288 288 288 288 288 288 287 287 287 287 288 288 287 287 287 287 287 287 287
287 287 287 287 287 287 287 286 286 286 286 286 286 286 287 287 287 287 287 287 288 287 287 286 287 287 286 287 287 287 287 287 286 287 286 287 287 287
287 287 287 287 287 287 287 286 286 286 285 285 285 285 286 286 286 286 287 287 287 287 287 286 286 286 286 287 287 287 286 286 286 286 286 286 287 287
287 287 287 287 287 287 287 286 286 286 285 285 285 285 285 285 285 285 286 286 286 286 286 286 286 285 285 285 285 285 286 286 285 286 286 286 286 287
287 287 287 287 287 287 286 286 286 286 286 285 285 284 284 283 283 283 283 284 284 284 285 285 285 284 284 284 284 286 285 285 285 285 286 286 286 287
287 287 287 287 286 286 286 286 286 286 286 285 285 284 284 283 283 283 282 282 282 282 283 284 283 283 283 283 284 286 286 285 285 285 285 284 285 286
287 287 287 286 286 286 286 286 286 286 286 285 285 284 284 283 283 282 282 282 282 281 282 282 282 282 282 283 284 284 285 285 284 284 285 284 284 284
287 287 286 286 286 286 286 286 286 286 286 285 285 284 284 283 283 282 282 282 282 282 282 282 282 281 282 282 283 284 284 284 284 284 284 284 284 284

GFSNE_850_thetae_093.txt.gz
Theta_e
330 329 329 327 326 323 322 323 319 320 317 315 314 313 312 312 311 310 310 309 309 309 309 310 310 310 310 309 309 309 308 307 305 304 303 303 301 301
329 325 326 325 325 322 321 320 318 318 315 315 313 312 311 311 310 309 308 308 308 308 308 308 307 308 308 307 306 306 305 304 304 303 302 300 298 298
323 324 319 323 323 321 320 318 315 313 313 313 311 310 307 308 308 308 307 307 307 306 306 306 306 305 305 305 304 304 303 302 302 299 294 292 296 296
322 321 320 321 320 319 316 311 310 310 310 309 308 307 307 306 306 306 305 305 305 305 305 305 305 304 303 303 303 303 302 297 292 290 289 289 289 290
320 319 318 318 318 313 309 309 308 308 308 307 306 306 306 305 305 304 304 304 303 303 303 303 302 302 301 298 294 291 290 290 289 289 289 290 291 290
316 317 317 314 309 308 308 308 307 307 307 307 306 305 304 303 303 303 302 301 301 300 299 297 294 291 290 289 289 288 288 289 290 290 290 290 290 290
310 309 308 308 308 308 307 307 306 304 304 304 304 303 302 301 300 300 299 297 293 291 290 289 289 289 289 289 289 289 289 290 290 290 290 290 291 291
308 308 308 308 307 307 306 305 304 303 303 302 301 299 297 296 295 293 291 289 289 289 288 287 288 288 288 290 290 290 290 290 290 290 290 290 290 290
307 307 306 306 305 304 303 303 302 298 295 292 291 291 290 290 289 289 288 288 287 288 287 288 289 289 290 290 291 290 290 290 290 290 290 290 290 290
305 304 303 303 302 300 295 291 290 290 290 289 289 289 289 288 288 287 287 287 287 288 289 289 290 290 290 290 291 291 291 290 290 290 289 289 290 290
302 301 302 297 292 290 290 290 290 289 289 288 288 287 287 287 287 287 288 288 289 289 289 289 289 290 290 290 290 290 290 290 290 289 289 289 290 290
299 293 290 290 289 289 289 289 289 288 288 288 287 287 287 287 287 288 289 289 289 288 290 289 289 289 290 290 289 289 289 289 289 289 289 289 289 289
289 289 289 289 288 288 288 288 288 288 287 287 287 287 287 288 288 289 289 289 289 288 289 289 289 289 289 289 290 289 289 289 289 289 289 289 290 290
288 288 288 288 288 288 287 287 287 287 287 287 287 287 288 288 289 289 288 289 289 289 288 288 288 288 288 289 289 289 289 289 289 289 289 289 289 288
287 287 288 288 288 287 287 287 287 286 287 287 287 287 288 288 288 288 288 288 288 288 288 288 288 288 288 288 289 289 289 290 289 289 289 289 289 289
287 287 288 287 287 287 287 287 287 287 287 287 287 288 288 288 288 288 288 288 288 288 288 288 288 288 288 288 288 289 288 288 288 288 288 288 288 288
287 287 287 287 287 287 287 287 287 287 287 287 287 287 287 287 288 288 288 287 287 287 287 287 288 288 288 287 287 288 288 288 287 287 287 288 288 287
287 287 287 287 287 287 287 287 287 287 287 287 286 286 286 286 286 287 287 286 286 286 286 286 286 286 287 287 287 287 287 287 287 286 286 286 287 287
286 287 287 287 287 287 287 287 287 287 287 286 286 286 285 285 285 285 285 285 285 285 285 285 285 285 285 285 286 286 286 286 286 286 285 285 286 287
287 287 287 287 287 287 287 287 286 287 287 286 286 286 285 285 285 284 284 284 284 283 283 283 284 284 284 284 284 286 285 285 285 285 286 285 286 287
287 287 288 287 287 287 287 286 286 286 286 286 286 286 285 285 284 284 283 283 283 283 283 283 282 281 282 282 283 285 285 284 284 284 285 284 285 286
288 288 288 287 287 287 286 286 286 286 286 286 286 286 285 285 285 284 283 283 283 283 283 283 282 281 281 281 282 283 284 285 284 284 283 283 283 283
288 288 287 287 287 287 286 286 286 286 286 286 286 286 285 285 285 284 284 283 283 283 283 284 283 282 282 281 281 282 283 285 285 285 285 284 284 284

GFSNE_850_thetae_096.txt.gz
Theta_e
327 327 325 326 325 324 327 324 323 321 319 318 317 316 314 312 312 311 310 309 309 309 308 308 308 309 309 309 309 309 308 308 307 306 305 304 304 303
326 322 324 320 324 325 325 323 321 320 318 317 316 315 313 311 310 310 309 308 308 308 308 308 308 308 308 308 308 308 306 306 305 304 303 303 302 301
322 325 318 323 322 322 321 322 320 319 315 315 314 311 309 308 307 308 307 307 307 307 307 306 306 306 305 305 304 304 305 304 303 303 302 297 294 291
320 320 320 320 321 321 320 320 319 313 311 310 309 309 307 305 306 306 305 306 305 304 305 305 305 305 304 303 303 303 303 303 301 295 291 290 289 289
318 320 319 318 319 318 317 317 309 309 309 309 308 306 305 304 305 305 304 303 303 303 303 303 303 302 301 301 299 296 293 291 290 290 289 289 290 291
316 316 316 315 315 315 314 308 308 308 308 307 307 306 306 305 304 304 302 302 301 300 300 299 298 294 292 291 290 290 289 289 289 289 290 290 290 290
313 313 313 313 313 309 308 308 307 307 306 306 306 305 304 303 302 301 300 300 298 294 291 290 290 289 289 289 289 289 289 290 290 290 290 290 290 291
309 309 308 308 307 307 307 306 306 305 305 305 304 303 302 300 299 298 296 293 290 290 289 288 288 289 289 290 290 291 291 291 291 290 290 290 291 290
307 307 306 306 306 305 305 305 304 304 302 301 300 296 295 293 292 290 289 289 288 289 288 288 289 290 290 291 291 291 291 291 290 290 290 290 290 290
305 305 305 305 304 304 303 302 300 297 294 292 291 291 290 290 290 289 288 288 288 288 289 289 291 290 290 291 291 291 291 290 290 290 290 289 289 289
303 303 303 302 301 301 296 291 290 290 289 289 289 289 289 289 288 288 288 288 289 290 290 290 290 291 290 291 291 291 290 290 290 290 289 289 289 289
301 301 300 299 294 290 289 289 289 289 289 289 289 289 288 288 288 288 288 289 289 289 290 290 290 290 290 290 290 290 290 290 290 289 289 289 289 289
298 297 292 289 289 289 288 288 289 288 288 288 289 288 288 288 288 289 289 289 289 289 290 289 290 290 290 290 290 289 289 289 289 289 289 289 290 290
289 289 288 289 288 287 287 288 288 287 287 288 288 288 289 289 289 289 289 289 289 289 289 289 289 289 289 289 290 289 289 289 289 290 290 290 290 290
288 288 288 288 287 287 287 287 287 287 287 288 288 288 288 289 289 289 289 289 289 289 289 289 289 289 289 289 289 289 289 289 289 289 289 289 289 289
287 287 287 287 287 287 287 287 287 287 287 287 288 288 288 288 288 288 289 289 289 288 288 289 289 289 288 288 288 288 288 288 288 288 288 288 289 289
286 286 287 287 287 287 287 287 287 287 288 288 288 287 287 287 288 288 288 288 288 288 288 288 288 288 288 288 288 288 287 288 287 287 287 287 288 288
287 287 287 287 287 287 287 287 288 288 288 287 287 287 287 287 287 287 287 287 287 286 286 286 286 287 287 287 287 287 287 286 286 286 286 286 288 287
287 287 287 287 287 287 287 287 288 287 287 287 287 286 286 286 286 286 286 286 286 285 285 285 284 284 284 285 286 285 286 285 285 285 285 285 286 287
287 287 287 287 287 287 287 288 287 287 287 287 287 287 286 286 286 286 285 285 285 284 284 284 283 283 282 283 284 285 284 283 283 284 285 285 285 286
288 288 288 287 288 287 287 287 287 287 287 286 286 286 286 286 286 286 285 285 285 285 285 284 283 282 282 282 283 285 284 283 283 283 284 284 285 286
288 288 288 288 288 288 287 287 287 287 287 287 286 286 286 286 286 286 285 285 284 284 284 283 283 282 282 281 283 284 285 286 285 284 284 283 283 283
289 289 288 288 287 287 287 287 287 287 286 286 286 286 286 286 286 285 285 285 284 284 284 284 283 283 283 283 283 284 285 285 286 286 285 284 284 283

GFSNE_850_thetae_099.txt.gz
Theta_e
319 323 326 326 326 325 325 324 325 323 322 321 319 318 316 315 313 312 311 310 309 309 308 309 308 308 308 309 309 310 309 308 308 307 306 305 305 304
314 320 322 324 324 323 323 322 324 323 322 319 318 317 315 314 313 311 310 309 309 308 308 308 307 307 307 308 307 307 307 307 306 306 304 304 303 303
313 318 322 320 324 323 322 320 320 320 321 318 317 314 312 310 308 308 308 307 307 307 307 307 307 306 306 305 305 305 305 304 304 303 303 302 300 294
314 315 318 320 318 318 320 322 320 320 319 315 313 312 310 308 305 305 305 306 305 304 306 306 306 305 304 304 303 303 303 302 302 301 296 292 290 290
315 317 317 319 318 318 319 318 318 317 314 310 309 307 307 306 304 303 303 304 304 303 304 303 303 303 302 302 301 300 296 293 291 290 290 290 290 290
315 315 316 316 316 316 316 315 315 312 308 308 308 307 305 304 303 303 303 302 302 301 301 300 299 298 296 294 292 290 290 289 289 289 290 290 291 291
312 311 312 312 312 312 312 313 310 307 307 307 307 306 304 304 304 303 301 301 300 298 295 292 290 290 289 289 289 289 289 289 290 291 291 291 291 291
308 309 310 310 311 311 311 307 307 307 307 306 306 305 304 303 302 301 299 298 295 291 290 290 288 288 289 289 289 290 291 291 291 291 290 290 290 291
307 307 307 307 307 307 306 306 306 306 304 304 303 303 302 300 298 296 295 293 290 289 289 289 289 290 290 290 291 291 291 291 291 291 291 290 290 290
305 305 306 306 305 305 305 304 302 303 303 303 301 298 294 293 292 290 289 289 289 289 289 289 290 291 290 291 291 291 291 291 291 290 290 290 289 289
302 303 303 304 303 303 303 301 301 300 297 292 291 290 290 289 289 289 289 289 289 289 290 290 290 290 290 290 291 291 290 290 290 290 290 289 289 289
301 301 302 301 300 300 300 296 290 290 290 289 289 289 289 288 288 288 288 288 289 290 290 290 290 290 290 290 290 290 290 290 290 290 290 289 289 289
299 300 299 298 296 292 290 289 289 289 289 288 289 288 288 288 288 288 289 290 290 290 290 290 290 290 290 290 290 290 290 289 289 289 290 290 290 290
297 296 293 290 288 288 288 288 288 288 288 288 288 288 288 288 288 289 290 290 290 289 290 290 289 289 289 290 289 289 289 289 289 290 289 290 290 290
289 288 288 288 288 287 287 287 287 287 288 288 287 288 288 288 289 289 289 289 289 289 289 289 289 289 289 289 289 289 289 289 289 289 289 289 289 289
287 287 287 287 287 287 286 286 287 287 287 287 287 288 288 289 289 289 289 289 289 289 289 289 289 288 288 288 288 289 288 288 288 288 288 288 288 288
286 286 286 287 287 287 286 286 287 287 286 287 287 288 288 288 288 288 288 288 288 288 288 288 288 288 288 288 288 288 287 287 287 287 287 288 288 288
287 287 287 287 287 287 287 287 287 287 287 287 287 287 287 287 287 287 287 287 287 287 287 286 286 286 286 286 286 286 286 286 286 286 286 286 287 287
287 287 287 287 287 287 287 287 287 287 287 287 287 287 287 287 287 287 287 287 287 286 286 286 286 285 285 285 285 285 285 285 285 285 284 285 285 287
287 288 287 287 287 287 287 287 287 287 287 287 287 286 287 287 287 287 286 286 286 286 285 285 285 284 284 284 283 285 284 284 283 284 284 285 285 286
287 288 288 287 287 287 287 287 287 287 287 287 287 286 287 287 287 287 286 286 285 285 286 285 283 283 284 284 285 286 285 284 284 284 285 285 286 287
288 288 288 287 287 287 287 287 287 287 287 287 287 287 287 287 287 287 286 286 285 285 285 284 283 283 283 284 285 286 286 286 285 284 284 284 284 284
290 289 289 288 288 287 287 287 287 287 287 287 287 287 286 286 286 286 286 286 286 285 284 284 283 283 284 284 284 285 286 286 286 286 286 284 284 283

GFSNE_850_thetae_102.txt.gz
Theta_e
323 323 323 321 326 326 326 326 325 325 323 323 321 320 320 317 316 315 313 311 310 310 309 309 309 309 308 309 309 310 311 310 309 308 307 307 306 305
312 312 314 316 321 325 322 323 323 324 323 321 321 320 318 316 314 312 312 310 309 309 308 308 308 307 307 307 308 307 307 307 306 306 306 305 304 303
311 311 312 317 320 322 322 323 322 321 323 320 320 319 317 315 311 309 308 307 307 307 307 307 307 307 307 306 306 306 306 305 305 304 304 303 302 300
312 312 312 315 317 319 319 320 320 321 318 320 319 317 315 312 309 307 305 305 304 304 305 305 305 305 305 305 305 304 303 303 303 303 302 299 293 290
312 312 314 315 317 317 316 319 318 319 319 317 315 313 311 309 307 305 303 302 303 303 304 304 304 303 304 303 303 302 301 299 295 292 291 290 290 290
310 313 313 315 317 317 317 316 316 316 315 315 311 307 307 306 305 304 303 302 302 302 302 302 301 301 301 300 298 295 292 290 290 289 289 290 290 291
308 309 310 312 313 313 314 314 313 312 313 311 307 306 306 305 303 303 302 302 301 300 299 298 296 294 292 290 289 289 289 289 289 290 290 291 291 291
307 307 307 309 309 310 310 310 310 311 308 306 306 306 306 304 303 303 302 301 299 298 296 291 290 289 289 289 289 289 290 290 291 291 291 291 291 291
306 306 306 307 307 307 308 308 308 307 306 305 305 305 304 304 303 302 301 299 297 293 290 289 288 288 289 290 290 290 291 291 291 291 291 291 291 290
304 304 304 304 305 305 304 304 304 304 305 304 303 303 302 300 299 297 296 294 292 289 288 288 289 290 290 290 291 291 291 291 291 291 291 290 290 290
301 301 301 302 302 302 302 302 302 302 301 302 302 301 299 294 293 291 290 290 289 288 288 289 290 290 290 291 291 291 291 291 291 291 290 290 290 290
300 300 301 301 301 301 301 299 299 298 297 293 292 290 290 290 289 289 288 288 288 288 290 290 290 290 290 290 290 290 290 290 290 290 290 290 290 289
299 299 300 300 299 299 298 297 292 290 289 289 289 288 289 288 288 288 288 288 288 289 290 290 290 290 290 290 290 290 290 289 289 290 290 290 290 290
298 298 297 297 296 293 289 288 288 288 288 288 288 288 287 288 287 288 288 289 290 290 290 290 290 290 289 289 289 290 289 289 289 289 289 289 290 290
295 294 292 289 288 288 288 287 286 287 287 288 288 287 287 287 288 288 289 289 290 289 290 290 289 289 289 289 289 289 289 289 289 289 289 289 289 289
290 288 287 287 287 287 287 286 286 286 286 287 286 286 287 287 288 289 289 289 289 289 289 289 289 289 289 289 289 289 288 289 288 288 289 289 288 288
287 287 286 286 287 287 287 286 286 286 286 286 286 287 287 287 288 288 288 288 288 288 288 288 288 288 288 288 288 288 288 288 287 288 288 288 288 288
288 287 287 286 286 286 286 286 286 286 286 286 286 287 287 287 287 287 287 288 287 287 287 287 287 287 287 287 286 286 287 287 286 286 286 287 287 286
288 288 287 287 287 286 286 286 287 286 286 286 286 287 287 287 286 287 287 287 286 287 286 287 287 287 286 286 286 286 286 285 285 285 285 285 286 287
289 290 288 287 287 287 286 286 287 286 286 286 287 287 287 286 286 287 287 287 286 286 286 286 286 286 286 285 286 286 285 285 284 284 285 285 286 287
290 288 288 288 287 287 287 286 286 286 286 286 286 286 286 286 286 287 286 286 285 286 287 287 285 285 285 285 286 286 285 284 284 285 285 286 287 288
292 289 289 288 287 287 287 287 286 286 287 287 287 286 286 286 286 287 286 285 286 286 286 285 285 285 285 285 286 285 285 285 285 285 285 285 286 286
295 293 290 289 288 288 287 287 287 287 287 287 287 287 286 286 286 286 286 285 285 285 285 285 285 285 285 285 284 285 285 285 285 286 286 285 285 285

GFSNE_850_thetae_105.txt.gz
Theta_e
320 321 321 321 320 322 323 323 324 325 325 325 324 323 322 320 320 317 315 314 311 311 311 310 310 309 309 308 312 313 313 314 311 309 307 306 307 306
315 313 312 312 313 317 325 325 325 325 324 323 323 322 321 320 319 316 314 311 311 310 309 309 308 308 308 308 308 308 308 309 308 307 306 305 306 305
311 311 311 311 311 312 322 320 322 324 323 323 320 320 319 318 316 314 312 308 307 305 306 308 307 307 307 307 307 307 307 306 306 305 305 304 304 303
312 312 312 313 312 317 317 319 320 320 320 320 319 318 318 317 314 312 309 307 304 303 303 305 306 306 306 306 306 306 305 304 304 304 303 303 302 296
310 310 311 311 313 314 317 317 317 318 317 318 318 317 316 314 312 309 307 304 303 302 301 303 305 305 305 304 304 304 303 303 302 301 297 293 291 290
309 308 309 310 310 314 315 315 316 317 316 315 315 315 313 311 309 307 305 303 302 301 301 302 302 303 303 302 302 301 300 298 294 291 290 290 290 290
308 308 308 308 309 310 312 313 314 314 313 313 312 312 310 307 306 305 304 302 301 301 301 301 300 299 298 298 297 294 291 290 289 289 290 290 291 291
307 307 307 306 306 307 308 310 310 311 310 310 310 309 306 305 305 304 303 302 301 301 300 298 297 293 290 290 290 289 289 289 290 290 291 291 291 291
306 306 306 305 304 305 305 306 307 308 308 308 306 306 305 305 304 302 302 302 301 300 296 296 291 289 289 289 289 289 290 291 291 291 291 291 291 291
305 304 301 301 302 302 302 304 304 305 304 304 304 304 303 303 303 302 302 301 299 297 294 289 289 289 289 290 290 291 291 291 291 291 291 291 291 290
303 301 301 300 300 300 300 301 301 301 302 303 302 302 302 301 300 299 298 297 295 293 290 289 288 289 290 290 291 291 291 291 291 291 291 290 290 290
300 300 300 300 300 300 300 300 300 300 300 301 300 300 300 299 295 294 292 291 290 289 289 288 289 290 290 290 291 291 290 291 290 290 290 290 290 290
299 299 299 298 298 297 298 298 297 296 293 291 290 290 290 290 290 289 289 288 288 288 289 289 290 290 290 290 291 290 290 290 290 290 290 290 290 290
298 297 297 297 297 296 296 293 291 290 289 288 288 288 288 288 288 288 287 287 287 288 289 290 290 290 290 290 290 290 290 290 290 290 289 289 290 290
297 296 296 294 292 291 289 288 287 287 287 287 287 287 287 286 286 287 287 288 289 289 289 290 289 289 289 290 290 289 289 289 289 289 289 289 289 289
296 295 291 288 288 288 287 287 286 286 286 286 287 286 286 286 287 287 288 289 289 289 289 289 289 289 289 289 289 289 289 289 289 289 289 289 289 289
295 292 288 287 287 287 287 287 286 286 286 286 286 286 286 286 287 287 288 288 288 289 289 289 289 289 289 288 288 288 288 288 288 288 288 288 288 288
294 291 289 288 287 286 286 286 286 286 286 285 285 286 286 286 287 287 287 288 288 288 288 288 288 288 288 288 289 288 287 287 287 287 287 287 287 287
293 292 290 291 288 287 286 286 286 286 285 285 286 286 286 286 286 287 287 287 287 287 287 288 288 288 288 288 288 288 287 286 286 286 286 286 287 287
293 292 290 289 288 287 287 286 286 286 285 286 286 286 286 286 286 286 287 287 287 287 287 287 287 287 287 286 287 288 287 286 286 285 285 286 287 287
293 293 292 290 288 288 287 287 286 286 285 285 286 286 286 286 286 286 286 286 286 286 287 287 287 285 286 287 288 288 286 286 286 286 286 287 287 288
294 294 294 293 289 288 287 287 286 286 286 286 286 286 286 286 286 286 286 286 286 286 287 286 285 285 286 286 287 286 286 285 285 285 286 286 286 286
295 294 295 295 293 291 289 288 287 287 286 286 286 286 286 286 286 286 286 285 286 285 286 286 284 284 285 285 285 286 286 286 285 285 285 285 286 287

GFSNE_850_thetae_108.txt.gz
Theta_e
319 321 322 321 321 321 323 323 323 323 322 322 323 324 324 323 321 320 319 317 314 313 312 311 310 310 310 309 312 316 316 316 314 313 309 307 307 307
319 313 311 311 311 312 312 313 317 320 322 321 321 321 321 322 320 319 318 316 314 312 310 310 309 309 308 308 307 311 310 310 310 308 306 306 306 306
311 311 311 311 312 312 312 313 313 320 319 322 320 320 320 319 318 318 316 314 313 311 307 307 307 308 307 307 307 307 307 307 307 306 306 305 305 305
311 311 310 310 311 312 312 318 318 317 318 318 318 318 318 318 316 315 314 313 311 308 304 303 304 307 306 306 306 306 306 306 306 305 305 305 304 303
310 310 310 309 309 309 310 312 315 317 316 317 318 317 317 317 315 314 312 310 307 305 303 302 302 304 305 305 306 305 305 305 304 303 303 303 301 295
309 309 309 308 308 308 309 311 314 314 315 315 315 316 314 314 313 312 310 308 305 304 302 301 300 302 303 303 304 304 304 303 301 300 298 294 292 291
308 308 308 307 307 307 308 309 310 312 313 312 313 312 312 312 311 311 307 305 304 303 301 300 300 300 301 301 301 301 300 299 295 292 290 290 290 291
308 307 307 306 306 306 304 305 306 308 309 310 310 310 310 309 308 306 305 304 302 302 301 301 300 298 297 295 294 293 291 290 290 290 290 291 291 291
307 307 305 304 304 303 302 304 303 304 306 307 307 308 308 307 304 304 304 303 302 301 300 300 298 296 293 290 290 289 289 289 290 290 291 291 291 291
306 305 304 303 301 301 300 300 301 302 302 303 304 305 304 303 302 302 302 301 300 300 300 296 294 292 289 289 289 289 290 290 291 291 291 291 291 291
304 304 303 301 300 301 300 300 300 300 300 301 301 301 301 302 302 302 300 300 300 299 298 295 290 289 289 289 290 290 291 291 291 291 291 291 291 291
303 302 301 299 299 300 300 299 299 299 299 300 300 300 300 301 300 300 299 299 298 297 295 292 289 288 289 290 290 291 291 291 291 291 291 291 291 290
299 300 299 298 299 298 299 298 298 297 296 295 294 294 295 297 297 296 295 294 292 292 289 288 288 289 290 290 291 291 290 290 290 290 290 290 290 290
299 298 298 298 298 298 297 296 295 294 293 292 290 288 288 289 289 289 289 289 288 288 288 289 288 290 290 290 290 290 290 290 290 290 290 290 290 290
299 297 297 297 296 296 294 292 289 288 287 287 287 287 287 287 287 287 287 287 287 287 287 288 290 290 289 289 290 290 290 290 290 290 290 290 289 290
299 298 296 295 291 290 289 288 288 287 287 286 286 286 286 286 286 286 286 287 287 288 289 289 289 289 289 289 289 289 289 289 289 289 289 289 289 289
297 297 296 293 289 287 288 287 287 287 286 286 286 286 286 286 286 286 286 287 288 288 288 288 289 289 289 289 289 289 289 289 289 289 288 288 288 288
296 296 296 293 289 287 287 286 286 286 286 286 285 285 286 286 286 286 286 287 288 288 288 288 288 288 288 289 289 289 288 288 288 288 287 288 288 287
295 294 295 294 289 290 289 287 286 285 285 286 285 285 285 285 285 286 286 287 287 287 287 287 287 287 287 287 289 289 289 288 288 288 287 287 287 287
294 294 295 294 290 289 288 287 287 286 286 286 286 286 285 285 285 286 286 286 287 287 286 287 287 287 287 287 289 290 289 288 287 287 287 287 287 287
294 294 294 294 293 290 289 288 287 287 286 286 285 285 286 286 286 286 286 286 286 286 286 286 286 285 285 287 289 290 288 288 287 286 286 287 287 288
294 294 293 294 294 293 292 288 288 287 287 286 286 286 286 286 286 286 286 286 286 286 287 286 285 285 285 287 288 289 287 285 286 286 286 286 286 286
295 295 294 294 294 294 294 292 291 289 288 287 287 286 286 286 286 286 286 286 285 285 286 286 285 285 285 286 286 287 287 287 285 285 286 285 286 286

GFSNE_850_thetae_111.txt.gz
Theta_e
319 319 320 320 317 317 318 320 320 321 320 320 320 320 320 321 321 320 319 318 317 316 314 313 312 311 311 311 310 315 318 317 317 316 314 311 309 308
321 319 312 311 311 311 311 311 312 316 320 317 318 318 320 320 319 319 318 317 315 314 314 312 311 310 310 309 309 312 314 314 314 314 311 308 307 307
311 311 311 311 311 311 311 312 312 313 316 317 320 317 320 318 318 319 317 315 315 313 313 312 308 308 308 308 308 308 308 310 309 308 307 307 306 306
311 310 310 310 310 310 310 310 310 314 315 316 316 317 317 318 317 317 315 315 313 313 311 310 305 306 306 307 308 307 307 306 307 307 306 306 305 305
310 311 310 310 309 309 309 309 309 310 314 315 315 315 316 317 316 316 315 312 311 311 308 306 303 303 304 305 306 306 306 306 306 306 305 304 304 303
310 309 309 309 309 309 308 308 308 309 312 313 313 314 314 314 315 314 312 311 310 308 306 304 302 301 301 302 303 305 305 304 304 304 303 302 301 298
309 309 309 309 308 308 307 307 307 308 309 310 311 311 312 312 313 312 311 309 307 305 304 303 302 301 301 301 302 303 303 303 302 301 299 297 293 291
309 309 308 307 306 305 305 305 304 304 305 307 309 309 309 309 309 310 309 307 305 304 303 302 301 300 300 299 299 299 300 299 298 295 292 290 289 290
308 308 307 306 305 304 303 301 301 302 303 304 305 306 306 307 306 306 305 304 304 304 302 301 300 300 299 297 295 292 292 290 289 289 289 290 290 291
307 306 306 305 303 303 303 301 300 299 300 300 301 303 304 304 304 303 303 303 302 302 301 300 299 299 297 294 290 289 289 289 289 290 290 291 291 291
305 305 304 304 303 303 301 300 300 300 300 300 300 300 301 302 302 302 301 301 301 300 300 299 298 295 293 290 288 289 289 289 290 291 291 291 291 291
303 303 302 301 298 299 299 300 299 299 300 300 300 300 301 301 301 301 300 300 299 298 299 298 297 292 289 289 289 289 290 290 291 291 291 291 291 291
301 300 299 299 298 298 299 299 299 299 298 298 296 296 296 298 299 299 299 298 298 298 295 293 294 291 288 290 289 290 290 290 291 291 291 291 291 290
301 299 298 297 297 297 298 298 297 296 295 294 294 292 289 289 290 292 294 294 294 294 293 291 288 288 288 289 290 290 290 290 290 290 290 290 290 290
302 301 299 298 297 296 295 294 292 291 289 288 287 287 287 287 287 288 288 289 289 289 288 288 288 288 290 290 290 290 290 290 290 290 290 290 289 289
301 300 299 298 296 293 290 290 289 288 288 287 286 286 286 287 287 286 286 286 287 287 287 287 288 289 289 289 290 290 290 289 290 290 289 289 289 289
300 298 296 295 295 293 289 287 288 287 287 287 286 286 286 286 286 286 286 286 286 287 288 288 288 289 289 289 289 290 289 290 290 289 289 289 289 289
298 296 295 294 294 292 289 287 287 286 286 286 286 286 286 286 286 286 286 286 286 287 288 288 288 288 289 289 289 290 290 290 289 289 288 288 288 288
296 294 293 293 294 293 289 289 288 287 286 286 286 286 285 285 285 286 286 286 286 287 287 287 288 288 287 288 290 291 292 291 290 289 288 288 288 287
295 294 294 294 293 293 290 289 288 287 287 286 286 286 286 285 286 286 286 286 286 286 287 287 287 287 287 287 288 291 291 290 290 289 288 288 289 288
295 295 294 293 294 294 293 290 289 288 287 287 286 286 286 286 286 286 286 286 286 286 287 287 287 286 286 287 288 289 289 289 289 289 288 289 289 288
295 295 295 294 293 293 293 293 292 289 288 287 287 286 286 286 285 285 286 286 286 287 287 286 286 286 286 286 287 288 287 287 288 289 289 289 289 287
297 296 296 295 293 293 294 294 294 292 290 290 289 288 287 286 286 286 286 286 285 286 286 286 285 285 285 286 286 286 286 286 286 286 288 288 288 288

GFSNE_850_thetae_114.txt.gz
Theta_e
324 324 321 319 321 317 316 318 320 319 319 320 319 317 318 320 320 320 319 319 318 317 316 315 314 312 312 312 310 309 310 318 319 318 317 317 311 310
321 320 321 315 311 311 311 311 312 314 318 316 316 315 318 317 318 320 318 317 318 317 315 314 314 313 311 310 310 311 316 318 318 317 314 314 311 309
316 312 311 311 311 311 311 311 311 312 313 314 316 314 317 317 318 318 317 318 317 316 316 313 313 312 309 308 309 309 309 312 312 312 310 308 308 307
311 311 310 310 311 311 310 310 310 310 310 314 314 315 314 315 316 316 316 316 314 313 313 312 312 310 306 306 306 308 308 307 308 308 306 306 306 305
310 311 311 311 310 310 310 309 309 309 310 310 311 313 314 314 315 316 315 315 313 311 310 309 308 307 304 303 304 306 307 306 306 305 305 305 305 304
311 311 310 310 310 309 309 309 308 308 308 309 311 312 312 312 313 313 313 313 312 309 308 308 306 304 303 302 302 304 306 305 305 305 304 304 303 302
310 310 310 310 309 309 308 307 306 306 306 306 308 309 310 311 312 312 311 309 308 307 307 306 304 303 302 302 301 302 303 304 304 303 302 301 300 299
309 310 310 309 308 307 306 306 304 304 303 304 304 305 307 308 309 309 309 308 307 307 306 304 303 303 302 301 300 301 301 301 302 301 301 299 296 292
309 309 308 307 306 305 305 304 303 303 302 301 302 303 304 305 305 306 306 307 306 306 305 304 303 302 301 300 299 298 298 297 297 297 295 291 289 289
308 308 306 306 305 305 304 303 303 301 301 300 301 301 302 303 303 304 304 303 303 303 302 302 302 301 300 299 297 296 293 291 289 289 289 289 289 290
307 306 305 304 304 304 304 302 301 301 300 300 300 300 300 301 302 302 302 302 302 302 302 300 300 300 299 297 296 294 290 289 288 289 289 290 290 291
305 304 303 302 301 301 299 299 299 299 300 300 300 300 300 301 301 301 301 301 301 300 300 299 299 298 295 293 291 289 289 289 289 290 290 290 291 291
303 302 300 299 299 298 298 299 298 299 299 298 298 298 297 298 299 299 299 299 299 298 299 297 298 298 294 289 289 288 289 289 290 290 290 291 291 291
303 302 301 300 299 298 297 297 298 298 297 295 295 295 294 292 290 292 296 298 298 298 297 297 295 292 293 290 289 289 289 290 290 290 290 290 290 290
303 302 301 301 300 298 296 295 295 294 292 290 289 289 288 289 289 288 288 290 292 293 294 294 292 289 288 288 288 290 290 290 290 290 290 290 290 290
302 301 301 299 297 296 295 292 290 290 289 288 288 287 287 287 287 287 287 287 287 288 288 288 288 288 288 289 289 289 290 290 290 290 290 290 290 289
301 301 300 298 296 295 295 292 289 288 288 287 287 287 287 287 286 287 286 286 286 286 287 287 287 287 288 289 289 289 289 290 290 290 290 290 289 289
301 299 297 296 295 294 294 293 289 288 287 286 286 286 286 286 286 286 286 286 286 286 287 287 288 288 288 289 289 289 289 290 290 290 290 290 290 289
299 298 296 295 295 294 293 293 289 290 288 287 286 286 286 286 285 286 286 286 286 286 287 287 288 287 288 288 289 289 290 290 290 293 291 291 291 290
298 297 296 295 294 294 293 293 290 289 289 287 287 286 286 286 286 285 286 286 286 286 286 287 288 288 288 287 288 289 290 291 292 291 291 291 291 291
299 298 296 295 294 294 293 293 292 290 289 288 287 287 286 286 285 286 286 286 285 285 286 287 287 287 286 287 288 289 289 289 290 291 290 291 290 291
298 297 296 295 295 294 293 293 292 293 291 290 288 287 287 287 286 286 285 285 286 286 286 286 286 286 287 287 289 289 288 288 289 290 290 290 290 289
297 297 297 296 295 295 294 293 293 293 293 293 290 288 288 288 287 286 286 286 285 285 285 286 286 286 286 287 290 290 287 287 287 288 288 288 289 288

GFSNE_850_thetae_117.txt.gz
Theta_e
326 326 326 325 323 320 321 318 321 319 319 318 320 318 317 315 318 319 320 319 317 319 318 318 318 316 317 314 312 310 310 309 311 313 317 318 316 313
323 323 323 320 320 317 311 311 312 313 318 313 316 315 313 314 314 318 317 318 317 316 316 316 316 315 315 313 310 309 310 316 317 318 317 316 312 312
322 321 321 317 311 311 311 311 311 312 315 315 313 312 311 314 314 316 316 317 316 315 315 314 314 314 314 313 309 308 309 313 315 314 312 311 311 310
318 315 312 311 311 310 310 310 310 310 310 311 311 311 311 313 313 314 315 314 314 314 313 312 313 313 312 311 309 306 308 308 309 310 310 309 309 307
313 312 311 310 310 310 310 310 309 309 309 308 309 309 310 311 312 312 313 313 313 313 312 311 311 310 310 308 306 304 306 307 307 307 307 307 306 306
311 311 310 310 310 310 309 309 310 309 308 307 307 307 306 308 310 311 311 311 312 311 310 309 309 308 307 306 304 303 304 306 305 305 304 305 305 303
310 310 310 310 309 309 309 309 309 308 306 305 304 305 305 306 307 309 310 311 310 308 308 308 307 306 305 305 303 302 303 304 304 304 303 303 303 301
310 310 310 310 310 310 308 308 307 305 304 303 303 301 302 303 305 306 308 309 307 308 307 307 306 305 304 303 302 301 301 302 302 303 303 302 300 298
310 310 310 309 308 308 307 306 306 305 304 303 302 301 301 301 303 304 305 306 306 306 306 306 305 304 303 302 301 301 300 301 300 302 302 300 298 295
309 308 308 307 307 305 305 304 304 303 303 302 301 301 301 301 301 301 303 303 304 304 304 303 303 303 302 301 300 300 298 297 295 295 295 294 292 289
307 306 306 305 304 304 304 303 303 303 303 301 301 301 300 300 300 301 301 302 303 303 303 302 302 301 301 300 299 298 297 294 291 290 289 288 288 289
305 304 304 304 303 302 301 301 301 301 301 301 300 300 299 300 300 300 300 300 300 301 301 300 300 300 298 299 298 296 295 292 289 288 288 289 289 290
304 304 303 302 302 301 300 300 300 299 300 299 299 299 298 297 297 299 299 299 299 299 299 299 299 299 297 296 290 292 291 289 288 289 289 290 290 290
304 303 302 302 301 301 300 300 299 298 298 298 297 295 295 295 294 292 292 297 298 298 298 298 298 296 294 296 294 290 289 288 289 289 290 290 291 291
303 303 302 302 301 301 300 300 299 297 296 294 292 290 289 289 289 289 289 289 291 295 297 296 296 296 294 289 291 289 290 289 289 290 290 290 290 290
304 303 302 302 301 299 298 297 296 294 291 290 290 288 288 287 287 287 287 287 287 288 290 291 292 292 291 288 288 288 289 290 290 290 290 290 290 290
303 302 301 301 299 297 297 296 296 294 290 288 288 287 287 287 287 287 287 286 286 286 287 287 288 288 288 287 288 289 289 290 290 290 290 290 290 290
302 302 300 298 297 296 295 295 294 293 290 288 288 287 286 286 286 286 286 286 286 286 286 287 287 287 287 287 288 289 289 289 289 289 290 290 291 290
301 300 298 296 295 296 295 294 293 293 290 289 289 287 287 286 286 286 286 286 286 286 286 286 287 287 288 288 288 289 289 289 289 290 291 292 292 291
300 300 299 297 296 295 295 294 293 293 291 290 289 288 287 286 286 286 286 286 286 285 286 286 287 287 288 288 288 288 289 289 290 291 293 294 292 291
300 299 298 298 297 295 295 294 293 293 293 291 290 289 288 287 286 286 286 286 286 285 285 286 287 287 287 287 287 288 288 288 289 291 291 291 291 291
298 297 297 297 297 296 295 294 294 292 293 292 292 290 289 287 287 287 286 286 285 285 286 286 285 286 286 287 287 287 288 288 288 289 290 290 291 291
296 296 296 296 296 295 295 294 294 294 293 292 292 292 291 289 288 288 287 286 286 286 285 285 285 286 286 286 286 287 287 290 292 291 289 289 290 289